Wetterdaten: Freitag, 27.01.2017
Datum Zeit Temp. Aussen Temp. o. S. +5cm Feuchte Auss BlattFeu 1 Luftdruck Regen Sonnenschein Regendauer Solar Windben Empfang
27.01.2017 00:00 -1,3 C -1,1 C -3,3 C 81 % 0 lf 1019,2 hPa 0,0 l/m 0 min 0 min 0 W/m 20,9 km/h (4 Bft) 93,62 %
27.01.2017 00:02 -1,3 C -1,1 C -3,3 C 81 % 0 lf 1019,3 hPa 0,0 l/m 0 min 0 min 0 W/m 12,6 km/h (3 Bft) 97,14 %
27.01.2017 00:06 -1,3 C -1,1 C -3,9 C 81 % 0 lf 1019,2 hPa 0,0 l/m 0 min 0 min 0 W/m 16,7 km/h (3 Bft) 91,49 %
27.01.2017 00:08 -1,3 C -1,1 C -3,9 C 81 % 0 lf 1019,1 hPa 0,0 l/m 0 min 0 min 0 W/m 16,7 km/h (3 Bft) 95,74 %
27.01.2017 00:10 -1,3 C -1,1 C -3,9 C 81 % 0 lf 1019,1 hPa 0,0 l/m 0 min 0 min 0 W/m 16,7 km/h (3 Bft) 95,74 %
27.01.2017 00:12 -1,3 C -1,7 C -3,9 C 81 % 0 lf 1019,1 hPa 0,0 l/m 0 min 0 min 0 W/m 14,6 km/h (3 Bft) 93,62 %
27.01.2017 00:14 -1,3 C -1,1 C -3,9 C 81 % 0 lf 1019,0 hPa 0,0 l/m 0 min 0 min 0 W/m 14,6 km/h (3 Bft) 91,30 %
27.01.2017 00:16 -1,3 C -1,1 C -3,9 C 81 % 0 lf 1019,0 hPa 0,0 l/m 0 min 0 min 0 W/m 23,0 km/h (4 Bft) 91,49 %
27.01.2017 00:18 -1,3 C -1,1 C -3,9 C 81 % 0 lf 1018,9 hPa 0,0 l/m 0 min 0 min 0 W/m 16,7 km/h (3 Bft) 91,49 %
27.01.2017 00:20 -1,3 C -1,1 C -3,9 C 81 % 0 lf 1018,9 hPa 0,0 l/m 0 min 0 min 0 W/m 18,8 km/h (3 Bft) 95,74 %
27.01.2017 00:22 -1,3 C -0,6 C -3,3 C 81 % 0 lf 1018,9 hPa 0,0 l/m 0 min 0 min 0 W/m 18,8 km/h (3 Bft) 93,62 %
27.01.2017 00:24 -1,3 C -0,6 C -3,3 C 81 % 0 lf 1018,8 hPa 0,0 l/m 0 min 0 min 0 W/m 18,8 km/h (3 Bft) 97,87 %
27.01.2017 00:26 -1,3 C -0,6 C -2,8 C 81 % 0 lf 1018,6 hPa 0,0 l/m 0 min 0 min 0 W/m 20,9 km/h (4 Bft) 95,65 %
27.01.2017 00:28 -1,2 C -0,6 C -2,8 C 81 % 0 lf 1018,6 hPa 0,0 l/m 0 min 0 min 0 W/m 18,8 km/h (3 Bft) 93,62 %
27.01.2017 00:30 -1,2 C -0,6 C -2,8 C 81 % 0 lf 1018,5 hPa 0,0 l/m 0 min 0 min 0 W/m 27,2 km/h (4 Bft) 97,87 %
27.01.2017 00:32 -1,2 C -0,6 C -2,8 C 80 % 0 lf 1018,6 hPa 0,0 l/m 0 min 0 min 0 W/m 23,0 km/h (4 Bft) 91,49 %
27.01.2017 00:34 -1,2 C -0,6 C -2,8 C 80 % 0 lf 1018,6 hPa 0,0 l/m 0 min 0 min 0 W/m 20,9 km/h (4 Bft) 95,74 %
27.01.2017 00:36 -1,1 C -0,6 C -2,8 C 80 % 0 lf 1018,6 hPa 0,0 l/m 0 min 0 min 0 W/m 20,9 km/h (4 Bft) 89,36 %
27.01.2017 00:38 -1,1 C -1,1 C -2,8 C 80 % 0 lf 1018,6 hPa 0,0 l/m 0 min 0 min 0 W/m 18,8 km/h (3 Bft) 97,83 %
27.01.2017 00:40 -1,1 C -1,1 C -3,3 C 80 % 0 lf 1018,5 hPa 0,0 l/m 0 min 0 min 0 W/m 14,6 km/h (3 Bft) 91,49 %
27.01.2017 00:42 -1,1 C -1,1 C -3,3 C 80 % 0 lf 1018,6 hPa 0,0 l/m 0 min 0 min 0 W/m 14,6 km/h (3 Bft) 97,87 %
27.01.2017 00:44 -1,1 C -1,1 C -3,3 C 80 % 0 lf 1018,6 hPa 0,0 l/m 0 min 0 min 0 W/m 10,5 km/h (2 Bft) 97,87 %
27.01.2017 00:46 -1,1 C -1,1 C -3,3 C 80 % 0 lf 1018,7 hPa 0,0 l/m 0 min 0 min 0 W/m 18,8 km/h (3 Bft) 97,87 %
27.01.2017 00:48 -1,1 C -1,1 C -3,3 C 79 % 0 lf 1018,7 hPa 0,0 l/m 0 min 0 min 0 W/m 14,6 km/h (3 Bft) 97,87 %
27.01.2017 00:50 -1,1 C -1,1 C -3,9 C 79 % 0 lf 1018,7 hPa 0,0 l/m 0 min 0 min 0 W/m 14,6 km/h (3 Bft) 97,83 %
27.01.2017 00:52 -1,2 C -1,1 C -3,9 C 79 % 0 lf 1018,6 hPa 0,0 l/m 0 min 0 min 0 W/m 16,7 km/h (3 Bft) 97,87 %
27.01.2017 00:54 -1,2 C -1,1 C -3,9 C 79 % 0 lf 1018,6 hPa 0,0 l/m 0 min 0 min 0 W/m 18,8 km/h (3 Bft) 97,87 %
27.01.2017 00:56 -1,2 C -1,1 C -3,9 C 79 % 0 lf 1018,5 hPa 0,0 l/m 0 min 0 min 0 W/m 16,7 km/h (3 Bft) 95,74 %
27.01.2017 00:58 -1,2 C -1,1 C -3,9 C 80 % 0 lf 1018,5 hPa 0,0 l/m 0 min 0 min 0 W/m 12,6 km/h (3 Bft) 97,87 %
27.01.2017 01:00 -1,2 C -1,1 C -3,9 C 80 % 0 lf 1018,5 hPa 0,0 l/m 0 min 0 min 0 W/m 16,7 km/h (3 Bft) 97,87 %
27.01.2017 01:02 -1,2 C -1,1 C -3,9 C 80 % 0 lf 1018,5 hPa 0,0 l/m 0 min 0 min 0 W/m 18,8 km/h (3 Bft) 97,83 %
27.01.2017 01:04 -1,2 C -1,1 C -3,9 C 80 % 0 lf 1018,4 hPa 0,0 l/m 0 min 0 min 0 W/m 18,8 km/h (3 Bft) 97,87 %
27.01.2017 01:06 -1,2 C -1,1 C -3,3 C 79 % 0 lf 1018,5 hPa 0,0 l/m 0 min 0 min 0 W/m 14,6 km/h (3 Bft) 97,87 %
27.01.2017 01:08 -1,3 C -1,1 C -3,9 C 79 % 0 lf 1018,4 hPa 0,0 l/m 0 min 0 min 0 W/m 8,4 km/h (2 Bft) 97,87 %
27.01.2017 01:10 -1,3 C -1,1 C -3,9 C 79 % 0 lf 1018,4 hPa 0,0 l/m 0 min 0 min 0 W/m 23,0 km/h (4 Bft) 97,87 %
27.01.2017 01:12 -1,3 C -1,1 C -3,9 C 80 % 0 lf 1018,4 hPa 0,0 l/m 0 min 0 min 0 W/m 12,6 km/h (3 Bft) 95,74 %
27.01.2017 01:14 -1,3 C -1,1 C -3,9 C 79 % 0 lf 1018,4 hPa 0,0 l/m 0 min 0 min 0 W/m 16,7 km/h (3 Bft) 93,48 %
27.01.2017 01:16 -1,3 C -1,1 C -3,9 C 79 % 0 lf 1018,4 hPa 0,0 l/m 0 min 0 min 0 W/m 16,7 km/h (3 Bft) 97,87 %
27.01.2017 01:18 -1,3 C -1,1 C -3,9 C 79 % 0 lf 1018,4 hPa 0,0 l/m 0 min 0 min 0 W/m 12,6 km/h (3 Bft) 97,87 %
27.01.2017 01:20 -1,3 C -1,7 C -3,9 C 79 % 0 lf 1018,4 hPa 0,0 l/m 0 min 0 min 0 W/m 18,8 km/h (3 Bft) 97,87 %
27.01.2017 01:22 -1,3 C -1,1 C -3,9 C 79 % 0 lf 1018,3 hPa 0,0 l/m 0 min 0 min 0 W/m 20,9 km/h (4 Bft) 97,87 %
27.01.2017 01:24 -1,3 C -1,1 C -3,9 C 79 % 0 lf 1018,2 hPa 0,0 l/m 0 min 0 min 0 W/m 20,9 km/h (4 Bft) 95,65 %
27.01.2017 01:26 -1,3 C -1,1 C -3,9 C 79 % 0 lf 1018,3 hPa 0,0 l/m 0 min 0 min 0 W/m 20,9 km/h (4 Bft) 95,74 %
27.01.2017 01:28 -1,3 C -1,1 C -3,9 C 79 % 0 lf 1018,3 hPa 0,0 l/m 0 min 0 min 0 W/m 23,0 km/h (4 Bft) 97,87 %
27.01.2017 01:30 -1,3 C -1,1 C -3,9 C 80 % 0 lf 1018,2 hPa 0,0 l/m 0 min 0 min 0 W/m 16,7 km/h (3 Bft) 93,62 %
27.01.2017 01:32 -1,3 C -1,1 C -3,3 C 80 % 0 lf 1018,3 hPa 0,0 l/m 0 min 0 min 0 W/m 20,9 km/h (4 Bft) 97,87 %
27.01.2017 01:34 -1,3 C -1,1 C -3,9 C 80 % 0 lf 1018,2 hPa 0,0 l/m 0 min 0 min 0 W/m 18,8 km/h (3 Bft) 97,87 %
27.01.2017 01:36 -1,3 C -1,1 C -3,9 C 79 % 0 lf 1018,2 hPa 0,0 l/m 0 min 0 min 0 W/m 16,7 km/h (3 Bft) 93,48 %
27.01.2017 01:38 -1,3 C -1,1 C -3,9 C 80 % 0 lf 1018,1 hPa 0,0 l/m 0 min 0 min 0 W/m 16,7 km/h (3 Bft) 97,87 %
27.01.2017 01:40 -1,4 C -1,1 C -3,3 C 80 % 0 lf 1017,9 hPa 0,0 l/m 0 min 0 min 0 W/m 18,8 km/h (3 Bft) 100,00 %
27.01.2017 01:42 -1,3 C -1,1 C -3,3 C 80 % 0 lf 1018,0 hPa 0,0 l/m 0 min 0 min 0 W/m 20,9 km/h (4 Bft) 95,74 %
27.01.2017 01:44 -1,4 C -1,1 C -3,3 C 80 % 0 lf 1018,0 hPa 0,0 l/m 0 min 0 min 0 W/m 14,6 km/h (3 Bft) 95,74 %
27.01.2017 01:46 -1,3 C -1,1 C -3,3 C 80 % 0 lf 1018,1 hPa 0,0 l/m 0 min 0 min 0 W/m 14,6 km/h (3 Bft) 93,62 %
27.01.2017 01:48 -1,3 C -1,1 C -3,3 C 80 % 0 lf 1018,1 hPa 0,0 l/m 0 min 0 min 0 W/m 14,6 km/h (3 Bft) 97,83 %
27.01.2017 01:50 -1,3 C -1,1 C -3,3 C 80 % 0 lf 1018,1 hPa 0,0 l/m 0 min 0 min 0 W/m 12,6 km/h (3 Bft) 97,87 %
27.01.2017 01:52 -1,3 C -1,1 C -3,9 C 80 % 0 lf 1018,1 hPa 0,0 l/m 0 min 0 min 0 W/m 14,6 km/h (3 Bft) 95,74 %
27.01.2017 01:54 -1,3 C -1,1 C -3,9 C 79 % 0 lf 1018,1 hPa 0,0 l/m 0 min 0 min 0 W/m 16,7 km/h (3 Bft) 95,74 %
27.01.2017 01:56 -1,3 C -1,1 C -3,9 C 79 % 0 lf 1018,0 hPa 0,0 l/m 0 min 0 min 0 W/m 16,7 km/h (3 Bft) 97,87 %
27.01.2017 01:58 -1,3 C -1,1 C -3,3 C 79 % 0 lf 1017,8 hPa 0,0 l/m 0 min 0 min 0 W/m 18,8 km/h (3 Bft) 97,87 %
27.01.2017 02:00 -1,3 C -1,1 C -3,3 C 79 % 0 lf 1017,7 hPa 0,0 l/m 0 min 0 min 0 W/m 25,1 km/h (4 Bft) 95,65 %
27.01.2017 02:02 -1,3 C -1,1 C -3,3 C 79 % 0 lf 1017,7 hPa 0,0 l/m 0 min 0 min 0 W/m 25,1 km/h (4 Bft) 97,87 %
27.01.2017 02:04 -1,3 C -1,1 C -3,3 C 79 % 0 lf 1017,7 hPa 0,0 l/m 0 min 0 min 0 W/m 16,7 km/h (3 Bft) 91,49 %
27.01.2017 02:06 -1,3 C -1,1 C -3,3 C 79 % 0 lf 1017,8 hPa 0,0 l/m 0 min 0 min 0 W/m 14,6 km/h (3 Bft) 95,74 %
27.01.2017 02:08 -1,3 C -1,7 C -3,9 C 79 % 0 lf 1017,8 hPa 0,0 l/m 0 min 0 min 0 W/m 14,6 km/h (3 Bft) 97,87 %
27.01.2017 02:10 -1,3 C -1,1 C -3,9 C 79 % 0 lf 1017,9 hPa 0,0 l/m 0 min 0 min 0 W/m 12,6 km/h (3 Bft) 97,83 %
27.01.2017 02:12 -1,3 C -1,1 C -3,9 C 79 % 0 lf 1017,8 hPa 0,0 l/m 0 min 0 min 0 W/m 14,6 km/h (3 Bft) 95,74 %
27.01.2017 02:14 -1,3 C -1,1 C -3,9 C 79 % 0 lf 1017,8 hPa 0,0 l/m 0 min 0 min 0 W/m 14,6 km/h (3 Bft) 97,87 %
27.01.2017 02:16 -1,4 C -1,7 C -3,9 C 79 % 0 lf 1017,8 hPa 0,0 l/m 0 min 0 min 0 W/m 12,6 km/h (3 Bft) 93,62 %
27.01.2017 02:18 -1,4 C -1,7 C -3,9 C 79 % 0 lf 1017,8 hPa 0,0 l/m 0 min 0 min 0 W/m 8,4 km/h (2 Bft) 100,00 %
27.01.2017 02:20 -1,4 C -1,7 C -4,4 C 79 % 0 lf 1017,7 hPa 0,0 l/m 0 min 0 min 0 W/m 10,5 km/h (2 Bft) 93,62 %
27.01.2017 02:22 -1,4 C -1,7 C -4,4 C 79 % 0 lf 1017,7 hPa 0,0 l/m 0 min 0 min 0 W/m 10,5 km/h (2 Bft) 100,00 %
27.01.2017 02:24 -1,4 C -1,7 C -4,4 C 79 % 0 lf 1017,7 hPa 0,0 l/m 0 min 0 min 0 W/m 14,6 km/h (3 Bft) 97,83 %
27.01.2017 02:26 -1,4 C -1,7 C -4,4 C 79 % 0 lf 1017,8 hPa 0,0 l/m 0 min 0 min 0 W/m 8,4 km/h (2 Bft) 100,00 %
27.01.2017 02:28 -1,5 C -1,7 C -4,4 C 79 % 0 lf 1017,8 hPa 0,0 l/m 0 min 0 min 0 W/m 12,6 km/h (3 Bft) 95,74 %
27.01.2017 02:30 -1,5 C -1,7 C -4,4 C 79 % 0 lf 1017,8 hPa 0,0 l/m 0 min 0 min 0 W/m 10,5 km/h (2 Bft) 97,87 %
27.01.2017 02:32 -1,6 C -1,7 C -4,4 C 80 % 0 lf 1017,9 hPa 0,0 l/m 0 min 0 min 0 W/m 12,6 km/h (3 Bft) 91,49 %
27.01.2017 02:34 -1,6 C -1,7 C -4,4 C 79 % 0 lf 1017,8 hPa 0,0 l/m 0 min 0 min 0 W/m 14,6 km/h (3 Bft) 95,65 %
27.01.2017 02:36 -1,6 C -1,7 C -4,4 C 80 % 0 lf 1017,8 hPa 0,0 l/m 0 min 0 min 0 W/m 10,5 km/h (2 Bft) 95,74 %
27.01.2017 02:38 -1,7 C -1,7 C -4,4 C 80 % 0 lf 1017,8 hPa 0,0 l/m 0 min 0 min 0 W/m 10,5 km/h (2 Bft) 97,87 %
27.01.2017 02:40 -1,7 C -1,7 C -4,4 C 80 % 0 lf 1017,8 hPa 0,0 l/m 0 min 0 min 0 W/m 8,4 km/h (2 Bft) 95,74 %
27.01.2017 02:42 -1,7 C -1,7 C -4,4 C 80 % 0 lf 1017,8 hPa 0,0 l/m 0 min 0 min 0 W/m 12,6 km/h (3 Bft) 93,62 %
27.01.2017 02:44 -1,7 C -1,7 C -4,4 C 80 % 0 lf 1017,8 hPa 0,0 l/m 0 min 0 min 0 W/m 10,5 km/h (2 Bft) 93,62 %
27.01.2017 02:46 -1,7 C -1,7 C -4,4 C 80 % 0 lf 1017,8 hPa 0,0 l/m 0 min 0 min 0 W/m 10,5 km/h (2 Bft) 93,48 %
27.01.2017 02:48 -1,8 C -1,7 C -4,4 C 80 % 0 lf 1017,7 hPa 0,0 l/m 0 min 0 min 0 W/m 20,9 km/h (4 Bft) 91,49 %
27.01.2017 02:50 -1,8 C -1,7 C -4,4 C 80 % 0 lf 1017,6 hPa 0,0 l/m 0 min 0 min 0 W/m 16,7 km/h (3 Bft) 93,62 %
27.01.2017 02:52 -1,8 C -1,7 C -4,4 C 80 % 0 lf 1017,7 hPa 0,0 l/m 0 min 0 min 0 W/m 16,7 km/h (3 Bft) 95,74 %
27.01.2017 02:54 -1,8 C -1,7 C -4,4 C 80 % 0 lf 1017,5 hPa 0,0 l/m 0 min 0 min 0 W/m 18,8 km/h (3 Bft) 95,74 %
27.01.2017 02:56 -1,8 C -1,7 C -4,4 C 80 % 0 lf 1017,5 hPa 0,0 l/m 0 min 0 min 0 W/m 16,7 km/h (3 Bft) 93,62 %
27.01.2017 02:58 -1,8 C -1,7 C -4,4 C 80 % 0 lf 1017,4 hPa 0,0 l/m 0 min 0 min 0 W/m 16,7 km/h (3 Bft) 93,48 %
27.01.2017 03:00 -1,8 C -1,7 C -4,4 C 81 % 0 lf 1017,6 hPa 0,0 l/m 0 min 0 min 0 W/m 14,6 km/h (3 Bft) 91,49 %
27.01.2017 03:02 -1,9 C -1,7 C -4,4 C 81 % 0 lf 1017,5 hPa 0,0 l/m 0 min 0 min 0 W/m 12,6 km/h (3 Bft) 93,62 %
27.01.2017 03:04 -1,9 C -1,7 C -4,4 C 81 % 0 lf 1017,4 hPa 0,0 l/m 0 min 0 min 0 W/m 14,6 km/h (3 Bft) 95,74 %
27.01.2017 03:06 -1,9 C -1,7 C -4,4 C 81 % 0 lf 1017,3 hPa 0,0 l/m 0 min 0 min 0 W/m 16,7 km/h (3 Bft) 95,74 %
27.01.2017 03:08 -1,9 C -1,7 C -4,4 C 81 % 0 lf 1017,3 hPa 0,0 l/m 0 min 0 min 0 W/m 18,8 km/h (3 Bft) 91,49 %
27.01.2017 03:10 -1,9 C -1,7 C -4,4 C 81 % 0 lf 1017,3 hPa 0,0 l/m 0 min 0 min 0 W/m 16,7 km/h (3 Bft) 97,83 %
27.01.2017 03:12 -1,9 C -1,7 C -4,4 C 81 % 0 lf 1017,3 hPa 0,0 l/m 0 min 0 min 0 W/m 16,7 km/h (3 Bft) 97,87 %
27.01.2017 03:14 -1,9 C -1,7 C -4,4 C 81 % 0 lf 1017,3 hPa 0,0 l/m 0 min 0 min 0 W/m 16,7 km/h (3 Bft) 97,87 %
27.01.2017 03:16 -1,9 C -1,7 C -4,4 C 81 % 0 lf 1017,2 hPa 0,0 l/m 0 min 0 min 0 W/m 23,0 km/h (4 Bft) 95,74 %
27.01.2017 03:18 -1,9 C -1,7 C -4,4 C 81 % 0 lf 1017,3 hPa 0,0 l/m 0 min 0 min 0 W/m 16,7 km/h (3 Bft) 97,87 %
27.01.2017 03:20 -1,9 C -1,7 C -4,4 C 81 % 0 lf 1017,3 hPa 0,0 l/m 0 min 0 min 0 W/m 23,0 km/h (4 Bft) 95,65 %
27.01.2017 03:22 -1,9 C -1,7 C -3,9 C 81 % 0 lf 1017,3 hPa 0,0 l/m 0 min 0 min 0 W/m 16,7 km/h (3 Bft) 97,87 %
27.01.2017 03:24 -1,9 C -1,7 C -4,4 C 81 % 0 lf 1017,3 hPa 0,0 l/m 0 min 0 min 0 W/m 20,9 km/h (4 Bft) 97,87 %
27.01.2017 03:26 -1,9 C -1,7 C -4,4 C 81 % 0 lf 1017,3 hPa 0,0 l/m 0 min 0 min 0 W/m 20,9 km/h (4 Bft) 95,74 %
27.01.2017 03:28 -1,9 C -1,7 C -4,4 C 81 % 0 lf 1017,3 hPa 0,0 l/m 0 min 0 min 0 W/m 18,8 km/h (3 Bft) 95,74 %
27.01.2017 03:30 -1,9 C -1,7 C -4,4 C 81 % 0 lf 1017,3 hPa 0,0 l/m 0 min 0 min 0 W/m 14,6 km/h (3 Bft) 95,74 %
27.01.2017 03:32 -1,9 C -1,7 C -3,9 C 81 % 0 lf 1017,3 hPa 0,0 l/m 0 min 0 min 0 W/m 20,9 km/h (4 Bft) 95,65 %
27.01.2017 03:34 -1,9 C -1,7 C -3,9 C 81 % 0 lf 1017,2 hPa 0,0 l/m 0 min 0 min 0 W/m 14,6 km/h (3 Bft) 95,74 %
27.01.2017 03:36 -1,9 C -1,7 C -3,9 C 81 % 0 lf 1017,2 hPa 0,0 l/m 0 min 0 min 0 W/m 18,8 km/h (3 Bft) 97,87 %
27.01.2017 03:38 -1,9 C -1,7 C -3,9 C 81 % 0 lf 1017,2 hPa 0,0 l/m 0 min 0 min 0 W/m 14,6 km/h (3 Bft) 93,62 %
27.01.2017 03:40 -1,9 C -1,7 C -3,9 C 81 % 0 lf 1017,0 hPa 0,0 l/m 0 min 0 min 0 W/m 16,7 km/h (3 Bft) 95,74 %
27.01.2017 03:42 -1,9 C -1,7 C -3,9 C 81 % 0 lf 1017,2 hPa 0,0 l/m 0 min 0 min 0 W/m 14,6 km/h (3 Bft) 91,49 %
27.01.2017 03:44 -1,9 C -1,7 C -3,9 C 81 % 0 lf 1017,3 hPa 0,0 l/m 0 min 0 min 0 W/m 18,8 km/h (3 Bft) 93,48 %
27.01.2017 03:46 -1,9 C -1,1 C -3,9 C 81 % 0 lf 1017,3 hPa 0,0 l/m 0 min 0 min 0 W/m 18,8 km/h (3 Bft) 93,62 %
27.01.2017 03:48 -1,8 C -1,1 C -3,9 C 81 % 0 lf 1017,3 hPa 0,0 l/m 0 min 0 min 0 W/m 23,0 km/h (4 Bft) 93,62 %
27.01.2017 03:50 -1,8 C -1,1 C -3,3 C 81 % 0 lf 1017,4 hPa 0,0 l/m 0 min 0 min 0 W/m 23,0 km/h (4 Bft) 93,62 %
27.01.2017 03:52 -1,8 C -1,1 C -3,3 C 81 % 0 lf 1017,4 hPa 0,0 l/m 0 min 0 min 0 W/m 20,9 km/h (4 Bft) 91,49 %
27.01.2017 03:54 -1,7 C -1,1 C -3,3 C 81 % 0 lf 1017,4 hPa 0,0 l/m 0 min 0 min 0 W/m 25,1 km/h (4 Bft) 91,49 %
27.01.2017 03:56 -1,7 C -1,1 C -3,3 C 81 % 0 lf 1017,4 hPa 0,0 l/m 0 min 0 min 0 W/m 25,1 km/h (4 Bft) 93,48 %
27.01.2017 03:58 -1,7 C -1,1 C -3,3 C 81 % 0 lf 1017,3 hPa 0,0 l/m 0 min 0 min 0 W/m 25,1 km/h (4 Bft) 95,74 %
27.01.2017 04:00 -1,7 C -1,1 C -3,3 C 81 % 0 lf 1017,4 hPa 0,0 l/m 0 min 0 min 0 W/m 16,7 km/h (3 Bft) 87,23 %
27.01.2017 04:05 -1,6 C -1,1 C -3,3 C 81 % 0 lf 1017,3 hPa 0,0 l/m 0 min 0 min 0 W/m 25,1 km/h (4 Bft) 97,10 %
27.01.2017 04:06 -1,6 C -1,1 C -3,3 C 81 % 0 lf 1017,3 hPa 0,0 l/m 0 min 0 min 0 W/m 18,8 km/h (3 Bft) 95,83 %
27.01.2017 04:08 -1,6 C -1,7 C -3,3 C 80 % 0 lf 1017,4 hPa 0,0 l/m 0 min 0 min 0 W/m 23,0 km/h (4 Bft) 91,30 %
27.01.2017 04:10 -1,6 C -1,1 C -3,3 C 80 % 0 lf 1017,4 hPa 0,0 l/m 0 min 0 min 0 W/m 31,4 km/h (5 Bft) 93,62 %
27.01.2017 04:12 -1,6 C -1,1 C -3,3 C 81 % 0 lf 1017,3 hPa 0,0 l/m 0 min 0 min 0 W/m 18,8 km/h (3 Bft) 95,74 %
27.01.2017 04:14 -1,6 C -1,1 C -3,3 C 81 % 0 lf 1017,4 hPa 0,0 l/m 0 min 0 min 0 W/m 25,1 km/h (4 Bft) 97,87 %
27.01.2017 04:16 -1,6 C -1,1 C -3,3 C 81 % 0 lf 1017,5 hPa 0,0 l/m 0 min 0 min 0 W/m 33,5 km/h (5 Bft) 95,74 %
27.01.2017 04:18 -1,6 C -1,1 C -3,3 C 81 % 0 lf 1017,4 hPa 0,0 l/m 0 min 0 min 0 W/m 23,0 km/h (4 Bft) 95,74 %
27.01.2017 04:20 -1,6 C -1,1 C -3,3 C 81 % 0 lf 1017,6 hPa 0,0 l/m 0 min 0 min 0 W/m 29,3 km/h (5 Bft) 97,83 %
27.01.2017 04:22 -1,6 C -1,1 C -3,3 C 81 % 0 lf 1017,5 hPa 0,0 l/m 0 min 0 min 0 W/m 20,9 km/h (4 Bft) 95,74 %
27.01.2017 04:24 -1,6 C -1,1 C -3,3 C 81 % 0 lf 1017,6 hPa 0,0 l/m 0 min 0 min 0 W/m 23,0 km/h (4 Bft) 97,87 %
27.01.2017 04:26 -1,6 C -1,1 C -3,3 C 80 % 0 lf 1017,5 hPa 0,0 l/m 0 min 0 min 0 W/m 25,1 km/h (4 Bft) 93,62 %
27.01.2017 04:28 -1,6 C -1,1 C -3,3 C 81 % 0 lf 1017,6 hPa 0,0 l/m 0 min 0 min 0 W/m 27,2 km/h (4 Bft) 95,74 %
27.01.2017 04:30 -1,6 C -1,1 C -3,3 C 81 % 0 lf 1017,6 hPa 0,0 l/m 0 min 0 min 0 W/m 20,9 km/h (4 Bft) 95,74 %
27.01.2017 04:32 -1,6 C -1,1 C -3,3 C 81 % 0 lf 1017,5 hPa 0,0 l/m 0 min 0 min 0 W/m 23,0 km/h (4 Bft) 97,83 %
27.01.2017 04:34 -1,6 C -1,1 C -3,3 C 81 % 0 lf 1017,6 hPa 0,0 l/m 0 min 0 min 0 W/m 18,8 km/h (3 Bft) 93,62 %
27.01.2017 04:36 -1,6 C -1,1 C -3,3 C 81 % 0 lf 1017,6 hPa 0,0 l/m 0 min 0 min 0 W/m 27,2 km/h (4 Bft) 97,87 %
27.01.2017 04:38 -1,6 C -1,1 C -3,3 C 81 % 0 lf 1017,4 hPa 0,0 l/m 0 min 0 min 0 W/m 25,1 km/h (4 Bft) 93,62 %
27.01.2017 04:40 -1,6 C -1,1 C -3,3 C 81 % 0 lf 1017,4 hPa 0,0 l/m 0 min 0 min 0 W/m 25,1 km/h (4 Bft) 100,00 %
27.01.2017 04:42 -1,6 C -1,1 C -3,3 C 81 % 0 lf 1017,4 hPa 0,0 l/m 0 min 0 min 0 W/m 27,2 km/h (4 Bft) 100,00 %
27.01.2017 04:44 -1,6 C -1,1 C -3,3 C 81 % 0 lf 1017,3 hPa 0,0 l/m 0 min 0 min 0 W/m 20,9 km/h (4 Bft) 97,87 %
27.01.2017 04:46 -1,6 C -1,1 C -3,3 C 81 % 0 lf 1017,3 hPa 0,0 l/m 0 min 0 min 0 W/m 25,1 km/h (4 Bft) 97,87 %
27.01.2017 04:48 -1,6 C -1,1 C -3,3 C 81 % 0 lf 1017,4 hPa 0,0 l/m 0 min 0 min 0 W/m 23,0 km/h (4 Bft) 95,74 %
27.01.2017 04:50 -1,6 C -1,1 C -3,3 C 81 % 0 lf 1017,3 hPa 0,0 l/m 0 min 0 min 0 W/m 25,1 km/h (4 Bft) 97,87 %
27.01.2017 04:52 -1,6 C -1,1 C -3,3 C 81 % 0 lf 1017,3 hPa 0,0 l/m 0 min 0 min 0 W/m 27,2 km/h (4 Bft) 100,00 %
27.01.2017 04:54 -1,6 C -1,1 C -3,3 C 80 % 0 lf 1017,3 hPa 0,0 l/m 0 min 0 min 0 W/m 23,0 km/h (4 Bft) 97,83 %
27.01.2017 04:56 -1,6 C -1,1 C -3,3 C 80 % 0 lf 1017,3 hPa 0,0 l/m 0 min 0 min 0 W/m 18,8 km/h (3 Bft) 97,87 %
27.01.2017 04:58 -1,6 C -1,1 C -3,3 C 80 % 0 lf 1017,2 hPa 0,0 l/m 0 min 0 min 0 W/m 23,0 km/h (4 Bft) 95,74 %
27.01.2017 05:00 -1,6 C -1,1 C -3,3 C 80 % 0 lf 1017,3 hPa 0,0 l/m 0 min 0 min 0 W/m 23,0 km/h (4 Bft) 97,87 %
27.01.2017 05:02 -1,6 C -1,1 C -3,3 C 80 % 0 lf 1017,3 hPa 0,0 l/m 0 min 0 min 0 W/m 18,8 km/h (3 Bft) 93,62 %
27.01.2017 05:04 -1,6 C -1,1 C -3,3 C 80 % 0 lf 1017,3 hPa 0,0 l/m 0 min 0 min 0 W/m 18,8 km/h (3 Bft) 93,62 %
27.01.2017 05:06 -1,6 C -1,1 C -3,3 C 80 % 0 lf 1017,3 hPa 0,0 l/m 0 min 0 min 0 W/m 18,8 km/h (3 Bft) 97,83 %
27.01.2017 05:08 -1,6 C -1,1 C -3,3 C 80 % 0 lf 1017,3 hPa 0,0 l/m 0 min 0 min 0 W/m 16,7 km/h (3 Bft) 95,74 %
27.01.2017 05:10 -1,6 C -1,1 C -3,3 C 80 % 0 lf 1017,3 hPa 0,0 l/m 0 min 0 min 0 W/m 18,8 km/h (3 Bft) 95,74 %
27.01.2017 05:12 -1,6 C -1,7 C -3,9 C 80 % 0 lf 1017,3 hPa 0,0 l/m 0 min 0 min 0 W/m 25,1 km/h (4 Bft) 97,87 %
27.01.2017 05:14 -1,6 C -1,7 C -3,3 C 80 % 0 lf 1017,2 hPa 0,0 l/m 0 min 0 min 0 W/m 20,9 km/h (4 Bft) 95,74 %
27.01.2017 05:16 -1,6 C -1,7 C -3,3 C 80 % 0 lf 1017,3 hPa 0,0 l/m 0 min 0 min 0 W/m 23,0 km/h (4 Bft) 97,87 %
27.01.2017 05:18 -1,6 C -1,1 C -3,9 C 80 % 0 lf 1017,2 hPa 0,0 l/m 0 min 0 min 0 W/m 20,9 km/h (4 Bft) 97,83 %
27.01.2017 05:20 -1,6 C -1,1 C -3,3 C 80 % 0 lf 1017,3 hPa 0,0 l/m 0 min 0 min 0 W/m 18,8 km/h (3 Bft) 95,74 %
27.01.2017 05:22 -1,6 C -1,1 C -3,9 C 80 % 0 lf 1017,3 hPa 0,0 l/m 0 min 0 min 0 W/m 20,9 km/h (4 Bft) 95,74 %
27.01.2017 05:24 -1,6 C -1,7 C -3,9 C 80 % 0 lf 1017,3 hPa 0,0 l/m 0 min 0 min 0 W/m 23,0 km/h (4 Bft) 93,62 %
27.01.2017 05:26 -1,6 C -1,1 C -3,3 C 80 % 0 lf 1017,2 hPa 0,0 l/m 0 min 0 min 0 W/m 29,3 km/h (5 Bft) 93,62 %
27.01.2017 05:28 -1,6 C -1,1 C -3,9 C 80 % 0 lf 1017,2 hPa 0,0 l/m 0 min 0 min 0 W/m 18,8 km/h (3 Bft) 97,83 %
27.01.2017 05:30 -1,6 C -1,7 C -3,9 C 80 % 0 lf 1017,2 hPa 0,0 l/m 0 min 0 min 0 W/m 20,9 km/h (4 Bft) 96,00 %
27.01.2017 05:32 -1,6 C -1,7 C -3,9 C 80 % 0 lf 1017,1 hPa 0,0 l/m 0 min 0 min 0 W/m 23,0 km/h (4 Bft) 93,62 %
27.01.2017 05:34 -1,6 C -1,7 C -3,9 C 80 % 0 lf 1017,1 hPa 0,0 l/m 0 min 0 min 0 W/m 25,1 km/h (4 Bft) 95,74 %
27.01.2017 05:36 -1,6 C -1,7 C -3,9 C 80 % 0 lf 1017,1 hPa 0,0 l/m 0 min 0 min 0 W/m 23,0 km/h (4 Bft) 95,74 %
27.01.2017 05:38 -1,7 C -1,7 C -3,3 C 80 % 0 lf 1017,1 hPa 0,0 l/m 0 min 0 min 0 W/m 25,1 km/h (4 Bft) 93,62 %
27.01.2017 05:40 -1,7 C -1,7 C -3,3 C 80 % 0 lf 1017,0 hPa 0,0 l/m 0 min 0 min 0 W/m 20,9 km/h (4 Bft) 97,83 %
27.01.2017 05:42 -1,7 C -1,7 C -3,9 C 80 % 0 lf 1017,0 hPa 0,0 l/m 0 min 0 min 0 W/m 25,1 km/h (4 Bft) 97,87 %
27.01.2017 05:44 -1,7 C -1,7 C -3,9 C 80 % 0 lf 1017,1 hPa 0,0 l/m 0 min 0 min 0 W/m 20,9 km/h (4 Bft) 95,74 %
27.01.2017 05:46 -1,7 C -1,7 C -3,9 C 80 % 0 lf 1017,1 hPa 0,0 l/m 0 min 0 min 0 W/m 20,9 km/h (4 Bft) 97,87 %
27.01.2017 05:48 -1,7 C -1,7 C -3,3 C 80 % 0 lf 1017,1 hPa 0,0 l/m 0 min 0 min 0 W/m 31,4 km/h (5 Bft) 97,87 %
27.01.2017 05:50 -1,7 C -1,7 C -3,9 C 80 % 0 lf 1017,1 hPa 0,0 l/m 0 min 0 min 0 W/m 20,9 km/h (4 Bft) 93,62 %
27.01.2017 05:52 -1,7 C -1,7 C -3,3 C 80 % 0 lf 1017,1 hPa 0,0 l/m 0 min 0 min 0 W/m 20,9 km/h (4 Bft) 95,65 %
27.01.2017 05:54 -1,7 C -1,1 C -3,3 C 80 % 0 lf 1017,1 hPa 0,0 l/m 0 min 0 min 0 W/m 25,1 km/h (4 Bft) 97,87 %
27.01.2017 05:56 -1,7 C -1,1 C -3,3 C 80 % 0 lf 1017,1 hPa 0,0 l/m 0 min 0 min 0 W/m 29,3 km/h (5 Bft) 95,74 %
27.01.2017 05:58 -1,7 C -1,1 C -3,9 C 80 % 0 lf 1017,0 hPa 0,0 l/m 0 min 0 min 0 W/m 27,2 km/h (4 Bft) 97,87 %
27.01.2017 06:00 -1,7 C -1,1 C -3,3 C 80 % 0 lf 1017,0 hPa 0,0 l/m 0 min 0 min 0 W/m 29,3 km/h (5 Bft) 97,87 %
27.01.2017 06:02 -1,7 C -1,1 C -3,3 C 80 % 0 lf 1017,0 hPa 0,0 l/m 0 min 0 min 0 W/m 29,3 km/h (5 Bft) 100,00 %
27.01.2017 06:04 -1,6 C -1,1 C -3,3 C 80 % 0 lf 1016,9 hPa 0,0 l/m 0 min 0 min 0 W/m 27,2 km/h (4 Bft) 97,83 %
27.01.2017 06:06 -1,6 C -1,1 C -3,3 C 80 % 0 lf 1016,9 hPa 0,0 l/m 0 min 0 min 0 W/m 31,4 km/h (5 Bft) 100,00 %
27.01.2017 06:08 -1,6 C -1,1 C -3,3 C 80 % 0 lf 1017,0 hPa 0,0 l/m 0 min 0 min 0 W/m 29,3 km/h (5 Bft) 95,74 %
27.01.2017 06:10 -1,6 C -1,7 C -3,3 C 80 % 0 lf 1016,9 hPa 0,0 l/m 0 min 0 min 0 W/m 25,1 km/h (4 Bft) 100,00 %
27.01.2017 06:12 -1,6 C -1,7 C -3,3 C 80 % 0 lf 1016,9 hPa 0,0 l/m 0 min 0 min 0 W/m 29,3 km/h (5 Bft) 97,87 %
27.01.2017 06:14 -1,6 C -1,7 C -3,3 C 80 % 0 lf 1017,0 hPa 0,0 l/m 0 min 0 min 0 W/m 27,2 km/h (4 Bft) 100,00 %
27.01.2017 06:16 -1,6 C -1,1 C -3,3 C 80 % 0 lf 1017,0 hPa 0,0 l/m 0 min 0 min 0 W/m 25,1 km/h (4 Bft) 95,74 %
27.01.2017 06:18 -1,6 C -1,1 C -3,3 C 80 % 0 lf 1017,0 hPa 0,0 l/m 0 min 0 min 0 W/m 23,0 km/h (4 Bft) 97,87 %
27.01.2017 06:20 -1,6 C -1,1 C -3,3 C 80 % 0 lf 1017,0 hPa 0,0 l/m 0 min 0 min 0 W/m 31,4 km/h (5 Bft) 95,74 %
27.01.2017 06:22 -1,6 C -1,7 C -3,3 C 80 % 0 lf 1017,0 hPa 0,0 l/m 0 min 0 min 0 W/m 23,0 km/h (4 Bft) 95,74 %
27.01.2017 06:24 -1,6 C -1,7 C -3,3 C 80 % 0 lf 1016,9 hPa 0,0 l/m 0 min 0 min 0 W/m 29,3 km/h (5 Bft) 97,87 %
27.01.2017 06:26 -1,6 C -1,7 C -3,3 C 80 % 0 lf 1017,0 hPa 0,0 l/m 0 min 0 min 0 W/m 18,8 km/h (3 Bft) 100,00 %
27.01.2017 06:28 -1,6 C -1,7 C -3,9 C 80 % 0 lf 1017,0 hPa 0,0 l/m 0 min 0 min 0 W/m 20,9 km/h (4 Bft) 97,87 %
27.01.2017 06:30 -1,6 C -1,7 C -3,3 C 80 % 0 lf 1016,9 hPa 0,0 l/m 0 min 0 min 0 W/m 25,1 km/h (4 Bft) 100,00 %
27.01.2017 06:32 -1,7 C -1,7 C -3,3 C 80 % 0 lf 1017,0 hPa 0,0 l/m 0 min 0 min 0 W/m 31,4 km/h (5 Bft) 97,87 %
27.01.2017 06:34 -1,7 C -1,7 C -3,3 C 80 % 0 lf 1016,8 hPa 0,0 l/m 0 min 0 min 0 W/m 23,0 km/h (4 Bft) 97,87 %
27.01.2017 06:36 -1,7 C -1,7 C -3,3 C 80 % 0 lf 1016,8 hPa 0,0 l/m 0 min 0 min 0 W/m 27,2 km/h (4 Bft) 97,87 %
27.01.2017 06:38 -1,7 C -1,7 C -3,3 C 80 % 0 lf 1016,8 hPa 0,0 l/m 0 min 0 min 0 W/m 25,1 km/h (4 Bft) 95,65 %
27.01.2017 06:40 -1,7 C -1,7 C -3,3 C 80 % 0 lf 1016,8 hPa 0,0 l/m 0 min 0 min 0 W/m 23,0 km/h (4 Bft) 97,87 %
27.01.2017 06:42 -1,7 C -1,1 C -3,3 C 80 % 0 lf 1016,9 hPa 0,0 l/m 0 min 0 min 0 W/m 20,9 km/h (4 Bft) 97,87 %
27.01.2017 06:44 -1,7 C -1,7 C -3,3 C 80 % 0 lf 1016,9 hPa 0,0 l/m 0 min 0 min 0 W/m 20,9 km/h (4 Bft) 93,62 %
27.01.2017 06:46 -1,7 C -1,7 C -3,3 C 80 % 0 lf 1016,8 hPa 0,0 l/m 0 min 0 min 0 W/m 23,0 km/h (4 Bft) 97,87 %
27.01.2017 06:48 -1,7 C -1,1 C -3,3 C 80 % 0 lf 1016,9 hPa 0,0 l/m 0 min 0 min 0 W/m 23,0 km/h (4 Bft) 97,87 %
27.01.2017 06:50 -1,7 C -1,7 C -3,3 C 80 % 0 lf 1016,8 hPa 0,0 l/m 0 min 0 min 0 W/m 23,0 km/h (4 Bft) 93,48 %
27.01.2017 06:52 -1,7 C -1,7 C -3,3 C 80 % 0 lf 1016,9 hPa 0,0 l/m 0 min 0 min 0 W/m 20,9 km/h (4 Bft) 95,74 %
27.01.2017 06:54 -1,7 C -1,7 C -3,3 C 80 % 0 lf 1016,9 hPa 0,0 l/m 0 min 0 min 0 W/m 27,2 km/h (4 Bft) 93,62 %
27.01.2017 06:56 -1,7 C -1,7 C -3,3 C 80 % 0 lf 1016,8 hPa 0,0 l/m 0 min 0 min 0 W/m 18,8 km/h (3 Bft) 93,62 %
27.01.2017 06:58 -1,7 C -1,7 C -3,3 C 80 % 0 lf 1016,9 hPa 0,0 l/m 0 min 0 min 0 W/m 23,0 km/h (4 Bft) 95,74 %
27.01.2017 07:00 -1,7 C -1,7 C -3,3 C 80 % 0 lf 1017,0 hPa 0,0 l/m 0 min 0 min 0 W/m 27,2 km/h (4 Bft) 87,23 %
27.01.2017 07:02 -1,7 C -1,7 C -3,3 C 80 % 0 lf 1017,0 hPa 0,0 l/m 0 min 0 min 0 W/m 23,0 km/h (4 Bft) 95,65 %
27.01.2017 07:04 -1,7 C -1,1 C -3,3 C 80 % 0 lf 1017,0 hPa 0,0 l/m 0 min 0 min 0 W/m 31,4 km/h (5 Bft) 93,62 %
27.01.2017 07:06 -1,7 C -1,1 C -3,3 C 80 % 0 lf 1017,0 hPa 0,0 l/m 0 min 0 min 0 W/m 25,1 km/h (4 Bft) 89,36 %
27.01.2017 07:08 -1,7 C -1,1 C -3,3 C 80 % 0 lf 1017,1 hPa 0,0 l/m 0 min 0 min 0 W/m 25,1 km/h (4 Bft) 93,62 %
27.01.2017 07:10 -1,7 C -1,1 C -3,3 C 80 % 0 lf 1017,0 hPa 0,0 l/m 0 min 0 min 0 W/m 25,1 km/h (4 Bft) 95,74 %
27.01.2017 07:12 -1,7 C -1,1 C -3,3 C 80 % 0 lf 1016,9 hPa 0,0 l/m 0 min 0 min 0 W/m 31,4 km/h (5 Bft) 93,62 %
27.01.2017 07:14 -1,7 C -1,1 C -3,3 C 80 % 0 lf 1016,9 hPa 0,0 l/m 0 min 0 min 0 W/m 29,3 km/h (5 Bft) 93,48 %
27.01.2017 07:16 -1,7 C -1,1 C -3,3 C 80 % 0 lf 1016,9 hPa 0,0 l/m 0 min 0 min 0 W/m 25,1 km/h (4 Bft) 93,62 %
27.01.2017 07:18 -1,7 C -1,7 C -3,3 C 80 % 0 lf 1016,9 hPa 0,0 l/m 0 min 0 min 0 W/m 20,9 km/h (4 Bft) 93,62 %
27.01.2017 07:20 -1,7 C -1,1 C -3,3 C 79 % 0 lf 1016,8 hPa 0,0 l/m 0 min 0 min 0 W/m 25,1 km/h (4 Bft) 89,36 %
27.01.2017 07:22 -1,7 C -1,1 C -3,3 C 79 % 0 lf 1016,9 hPa 0,0 l/m 0 min 0 min 0 W/m 29,3 km/h (5 Bft) 91,49 %
27.01.2017 07:24 -1,7 C -1,7 C -3,3 C 79 % 0 lf 1016,8 hPa 0,0 l/m 0 min 0 min 0 W/m 35,6 km/h (5 Bft) 93,62 %
27.01.2017 07:26 -1,6 C -1,7 C -3,3 C 79 % 0 lf 1016,8 hPa 0,0 l/m 0 min 0 min 0 W/m 27,2 km/h (4 Bft) 91,30 %
27.01.2017 07:28 -1,7 C -1,1 C -3,3 C 79 % 0 lf 1016,8 hPa 0,0 l/m 0 min 0 min 0 W/m 27,2 km/h (4 Bft) 91,49 %
27.01.2017 07:30 -1,7 C -1,1 C -3,3 C 79 % 0 lf 1016,8 hPa 0,0 l/m 0 min 0 min 0 W/m 31,4 km/h (5 Bft) 91,49 %
27.01.2017 07:32 -1,7 C -1,1 C -3,3 C 79 % 0 lf 1016,8 hPa 0,0 l/m 0 min 0 min 0 W/m 35,6 km/h (5 Bft) 89,36 %
27.01.2017 07:34 -1,6 C -1,1 C -3,3 C 79 % 0 lf 1016,8 hPa 0,0 l/m 0 min 0 min 0 W/m 29,3 km/h (5 Bft) 85,11 %
27.01.2017 07:36 -1,6 C -1,1 C -3,3 C 79 % 0 lf 1016,7 hPa 0,0 l/m 0 min 0 min 0 W/m 18,8 km/h (3 Bft) 89,13 %
27.01.2017 07:38 -1,6 C -1,1 C -3,3 C 79 % 0 lf 1016,7 hPa 0,0 l/m 0 min 0 min 0 W/m 31,4 km/h (5 Bft) 93,62 %
27.01.2017 07:40 -1,6 C -1,1 C -3,3 C 79 % 0 lf 1016,7 hPa 0,0 l/m 0 min 0 min 0 W/m 31,4 km/h (5 Bft) 91,49 %
27.01.2017 07:42 -1,6 C -1,1 C -3,3 C 79 % 0 lf 1016,8 hPa 0,0 l/m 0 min 0 min 0 W/m 20,9 km/h (4 Bft) 93,62 %
27.01.2017 07:44 -1,6 C -1,1 C -3,3 C 79 % 0 lf 1016,8 hPa 0,0 l/m 0 min 0 min 0 W/m 25,1 km/h (4 Bft) 91,49 %
27.01.2017 07:46 -1,6 C -1,1 C -3,3 C 79 % 0 lf 1016,9 hPa 0,0 l/m 0 min 0 min 0 W/m 23,0 km/h (4 Bft) 91,49 %
27.01.2017 07:48 -1,6 C -1,1 C -3,3 C 79 % 0 lf 1017,0 hPa 0,0 l/m 0 min 0 min 0 W/m 31,4 km/h (5 Bft) 93,48 %
27.01.2017 07:50 -1,6 C -1,1 C -3,3 C 79 % 0 lf 1017,1 hPa 0,0 l/m 0 min 0 min 0 W/m 35,6 km/h (5 Bft) 93,62 %
27.01.2017 07:52 -1,6 C -1,1 C -3,3 C 79 % 0 lf 1017,0 hPa 0,0 l/m 0 min 0 min 0 W/m 27,2 km/h (4 Bft) 91,49 %
27.01.2017 07:54 -1,6 C -1,1 C -3,3 C 79 % 0 lf 1016,9 hPa 0,0 l/m 0 min 0 min 1 W/m 43,9 km/h (6 Bft) 93,62 %
27.01.2017 07:56 -1,6 C -1,1 C -3,3 C 79 % 0 lf 1016,9 hPa 0,0 l/m 0 min 0 min 5 W/m 23,0 km/h (4 Bft) 93,62 %
27.01.2017 07:58 -1,6 C -1,1 C -3,3 C 79 % 0 lf 1016,9 hPa 0,0 l/m 0 min 0 min 5 W/m 31,4 km/h (5 Bft) 91,49 %
27.01.2017 08:00 -1,6 C -1,1 C -3,3 C 79 % 0 lf 1016,9 hPa 0,0 l/m 0 min 0 min 5 W/m 31,4 km/h (5 Bft) 95,65 %
27.01.2017 08:02 -1,6 C -1,1 C -3,3 C 79 % 0 lf 1016,9 hPa 0,0 l/m 0 min 0 min 0 W/m 33,5 km/h (5 Bft) 95,74 %
27.01.2017 08:04 -1,6 C -1,1 C -3,3 C 79 % 0 lf 1016,9 hPa 0,0 l/m 0 min 0 min 9 W/m 29,3 km/h (5 Bft) 91,49 %
27.01.2017 08:06 -1,6 C -1,1 C -3,3 C 79 % 0 lf 1016,8 hPa 0,0 l/m 0 min 0 min 9 W/m 25,1 km/h (4 Bft) 95,74 %
27.01.2017 08:08 -1,6 C -1,1 C -3,3 C 79 % 0 lf 1016,8 hPa 0,0 l/m 0 min 0 min 11 W/m 27,2 km/h (4 Bft) 95,74 %
27.01.2017 08:10 -1,6 C -1,1 C -3,3 C 79 % 0 lf 1016,7 hPa 0,0 l/m 0 min 0 min 11 W/m 29,3 km/h (5 Bft) 95,74 %
27.01.2017 08:12 -1,6 C -1,1 C -3,3 C 79 % 0 lf 1016,6 hPa 0,0 l/m 0 min 0 min 11 W/m 27,2 km/h (4 Bft) 97,83 %
27.01.2017 08:14 -1,6 C -1,1 C -3,3 C 79 % 0 lf 1016,6 hPa 0,0 l/m 0 min 0 min 11 W/m 27,2 km/h (4 Bft) 97,87 %
27.01.2017 08:16 -1,6 C -1,1 C -3,3 C 79 % 0 lf 1016,7 hPa 0,0 l/m 0 min 0 min 11 W/m 33,5 km/h (5 Bft) 97,87 %
27.01.2017 08:18 -1,6 C -1,1 C -3,3 C 79 % 0 lf 1016,7 hPa 0,0 l/m 0 min 0 min 11 W/m 23,0 km/h (4 Bft) 100,00 %
27.01.2017 08:20 -1,6 C -1,1 C -3,3 C 79 % 0 lf 1016,7 hPa 0,0 l/m 0 min 0 min 11 W/m 20,9 km/h (4 Bft) 97,87 %
27.01.2017 08:22 -1,6 C -1,1 C -3,3 C 79 % 0 lf 1016,9 hPa 0,0 l/m 0 min 0 min 11 W/m 33,5 km/h (5 Bft) 100,00 %
27.01.2017 08:24 -1,6 C -1,1 C -3,3 C 79 % 0 lf 1016,9 hPa 0,0 l/m 0 min 0 min 11 W/m 29,3 km/h (5 Bft) 97,87 %
27.01.2017 08:26 -1,6 C -1,1 C -3,3 C 79 % 0 lf 1016,9 hPa 0,0 l/m 0 min 0 min 12 W/m 35,6 km/h (5 Bft) 91,49 %
27.01.2017 08:28 -1,6 C -1,1 C -2,8 C 79 % 0 lf 1016,7 hPa 0,0 l/m 0 min 0 min 13 W/m 25,1 km/h (4 Bft) 100,00 %
27.01.2017 08:30 -1,6 C -1,1 C -2,8 C 79 % 0 lf 1016,8 hPa 0,0 l/m 0 min 0 min 14 W/m 27,2 km/h (4 Bft) 93,62 %
27.01.2017 08:32 -1,5 C -1,1 C -2,8 C 79 % 0 lf 1016,8 hPa 0,0 l/m 0 min 0 min 16 W/m 29,3 km/h (5 Bft) 95,74 %
27.01.2017 08:34 -1,5 C -1,1 C -2,8 C 79 % 0 lf 1016,8 hPa 0,0 l/m 0 min 0 min 16 W/m 29,3 km/h (5 Bft) 100,00 %
27.01.2017 08:36 -1,5 C -1,1 C -2,8 C 79 % 0 lf 1016,8 hPa 0,0 l/m 0 min 0 min 18 W/m 31,4 km/h (5 Bft) 100,00 %
27.01.2017 08:38 -1,5 C -1,1 C -2,8 C 79 % 0 lf 1016,7 hPa 0,0 l/m 0 min 0 min 19 W/m 29,3 km/h (5 Bft) 100,00 %
27.01.2017 08:40 -1,5 C -1,1 C -2,8 C 79 % 0 lf 1016,7 hPa 0,0 l/m 2 min 0 min 21 W/m 20,9 km/h (4 Bft) 100,00 %
27.01.2017 08:42 -1,4 C -1,1 C -2,8 C 79 % 0 lf 1016,7 hPa 0,0 l/m 2 min 0 min 22 W/m 27,2 km/h (4 Bft) 97,87 %
27.01.2017 08:44 -1,4 C -1,1 C -2,8 C 79 % 0 lf 1016,8 hPa 0,0 l/m 2 min 0 min 25 W/m 39,7 km/h (6 Bft) 95,74 %
27.01.2017 08:46 -1,4 C -1,1 C -2,8 C 79 % 0 lf 1016,7 hPa 0,0 l/m 2 min 0 min 26 W/m 23,0 km/h (4 Bft) 97,83 %
27.01.2017 08:48 -1,4 C -1,1 C -2,8 C 79 % 0 lf 1016,7 hPa 0,0 l/m 0 min 0 min 27 W/m 29,3 km/h (5 Bft) 100,00 %
27.01.2017 08:50 -1,4 C -1,1 C -2,8 C 79 % 0 lf 1016,7 hPa 0,0 l/m 2 min 0 min 30 W/m 27,2 km/h (4 Bft) 100,00 %
27.01.2017 08:52 -1,4 C -1,1 C -2,8 C 79 % 0 lf 1016,8 hPa 0,0 l/m 0 min 0 min 31 W/m 23,0 km/h (4 Bft) 97,87 %
27.01.2017 08:54 -1,4 C -1,1 C -2,8 C 79 % 0 lf 1016,9 hPa 0,0 l/m 0 min 0 min 33 W/m 31,4 km/h (5 Bft) 95,74 %
27.01.2017 08:56 -1,4 C -1,1 C -2,8 C 79 % 0 lf 1016,8 hPa 0,0 l/m 0 min 0 min 35 W/m 25,1 km/h (4 Bft) 100,00 %
27.01.2017 08:58 -1,4 C -0,6 C -2,8 C 79 % 0 lf 1016,9 hPa 0,0 l/m 0 min 0 min 38 W/m 23,0 km/h (4 Bft) 97,83 %
27.01.2017 09:00 -1,3 C -0,6 C -2,8 C 79 % 0 lf 1016,9 hPa 0,0 l/m 0 min 0 min 40 W/m 29,3 km/h (5 Bft) 97,87 %
27.01.2017 09:02 -1,3 C -0,6 C -2,8 C 79 % 0 lf 1017,0 hPa 0,0 l/m 2 min 0 min 43 W/m 25,1 km/h (4 Bft) 100,00 %
27.01.2017 09:04 -1,3 C -0,6 C -2,2 C 79 % 0 lf 1017,0 hPa 0,0 l/m 2 min 0 min 46 W/m 25,1 km/h (4 Bft) 97,87 %
27.01.2017 09:06 -1,3 C -0,6 C -2,2 C 79 % 0 lf 1017,0 hPa 0,0 l/m 2 min 0 min 48 W/m 29,3 km/h (5 Bft) 98,00 %
27.01.2017 09:08 -1,3 C -0,6 C -2,2 C 79 % 0 lf 1017,0 hPa 0,0 l/m 2 min 0 min 52 W/m 27,2 km/h (4 Bft) 93,48 %
27.01.2017 09:10 -1,2 C -0,6 C -2,2 C 79 % 0 lf 1017,0 hPa 0,0 l/m 2 min 0 min 56 W/m 27,2 km/h (4 Bft) 97,96 %
27.01.2017 09:12 -1,2 C -0,6 C -2,2 C 78 % 0 lf 1017,0 hPa 0,0 l/m 2 min 0 min 59 W/m 27,2 km/h (4 Bft) 100,00 %
27.01.2017 09:14 -1,2 C -0,6 C -2,2 C 78 % 0 lf 1017,0 hPa 0,0 l/m 2 min 0 min 60 W/m 33,5 km/h (5 Bft) 97,87 %
27.01.2017 09:16 -1,1 C -0,6 C -2,2 C 78 % 0 lf 1016,9 hPa 0,0 l/m 2 min 0 min 61 W/m 33,5 km/h (5 Bft) 97,87 %
27.01.2017 09:18 -1,1 C -0,6 C -2,2 C 78 % 0 lf 1016,8 hPa 0,0 l/m 2 min 0 min 63 W/m 31,4 km/h (5 Bft) 100,00 %
27.01.2017 09:20 -1,1 C 0,0 C -2,2 C 78 % 0 lf 1016,9 hPa 0,0 l/m 2 min 0 min 65 W/m 25,1 km/h (4 Bft) 93,48 %
27.01.2017 09:22 -1,1 C 0,0 C -2,2 C 78 % 0 lf 1017,0 hPa 0,0 l/m 2 min 0 min 67 W/m 31,4 km/h (5 Bft) 93,62 %
27.01.2017 09:24 -1,1 C 0,0 C -2,2 C 78 % 0 lf 1017,0 hPa 0,0 l/m 2 min 0 min 70 W/m 31,4 km/h (5 Bft) 95,74 %
27.01.2017 09:26 -1,0 C 0,0 C -1,7 C 78 % 0 lf 1017,1 hPa 0,0 l/m 2 min 0 min 71 W/m 25,1 km/h (4 Bft) 97,87 %
27.01.2017 09:28 -1,0 C 0,0 C -1,7 C 78 % 0 lf 1017,1 hPa 0,0 l/m 2 min 0 min 75 W/m 35,6 km/h (5 Bft) 91,49 %
27.01.2017 09:30 -0,9 C 0,0 C -1,7 C 78 % 0 lf 1017,1 hPa 0,0 l/m 2 min 0 min 78 W/m 25,1 km/h (4 Bft) 95,65 %
27.01.2017 09:32 -0,9 C 0,0 C -1,7 C 78 % 0 lf 1017,1 hPa 0,0 l/m 2 min 0 min 78 W/m 31,4 km/h (5 Bft) 93,62 %
27.01.2017 09:34 -0,9 C 0,0 C -1,7 C 78 % 0 lf 1017,1 hPa 0,0 l/m 2 min 0 min 79 W/m 35,6 km/h (5 Bft) 95,74 %
27.01.2017 09:36 -0,8 C 0,0 C -1,7 C 78 % 0 lf 1017,1 hPa 0,0 l/m 2 min 0 min 81 W/m 25,1 km/h (4 Bft) 93,62 %
27.01.2017 09:38 -0,8 C 0,0 C -1,7 C 78 % 0 lf 1017,1 hPa 0,0 l/m 2 min 0 min 82 W/m 29,3 km/h (5 Bft) 97,87 %
27.01.2017 09:40 -0,8 C 0,0 C -1,7 C 78 % 0 lf 1017,0 hPa 0,0 l/m 2 min 0 min 83 W/m 33,5 km/h (5 Bft) 95,74 %
27.01.2017 09:42 -0,7 C 0,0 C -1,7 C 77 % 0 lf 1017,1 hPa 0,0 l/m 2 min 0 min 85 W/m 31,4 km/h (5 Bft) 93,48 %
27.01.2017 09:44 -0,7 C 0,0 C -1,7 C 77 % 0 lf 1017,2 hPa 0,0 l/m 2 min 0 min 87 W/m 27,2 km/h (4 Bft) 95,74 %
27.01.2017 09:46 -0,7 C 0,6 C -1,7 C 77 % 0 lf 1017,2 hPa 0,0 l/m 2 min 0 min 90 W/m 33,5 km/h (5 Bft) 97,87 %
27.01.2017 09:48 -0,7 C 0,6 C -1,1 C 77 % 0 lf 1017,2 hPa 0,0 l/m 2 min 0 min 92 W/m 29,3 km/h (5 Bft) 91,49 %
27.01.2017 09:50 -0,6 C 0,6 C -1,1 C 77 % 0 lf 1017,2 hPa 0,0 l/m 2 min 0 min 97 W/m 25,1 km/h (4 Bft) 91,49 %
27.01.2017 09:52 -0,6 C 0,6 C -1,1 C 77 % 0 lf 1017,1 hPa 0,0 l/m 2 min 0 min 101 W/m 31,4 km/h (5 Bft) 89,36 %
27.01.2017 09:54 -0,6 C 0,6 C -1,1 C 77 % 0 lf 1017,1 hPa 0,0 l/m 2 min 0 min 109 W/m 25,1 km/h (4 Bft) 95,65 %
27.01.2017 09:56 -0,5 C 0,6 C -1,1 C 77 % 0 lf 1017,2 hPa 0,0 l/m 2 min 0 min 115 W/m 29,3 km/h (5 Bft) 93,62 %
27.01.2017 09:58 -0,5 C 0,6 C -1,1 C 77 % 0 lf 1017,3 hPa 0,0 l/m 2 min 0 min 121 W/m 31,4 km/h (5 Bft) 93,62 %
27.01.2017 10:00 -0,4 C 0,6 C -1,1 C 77 % 0 lf 1017,2 hPa 0,0 l/m 2 min 0 min 137 W/m 29,3 km/h (5 Bft) 93,62 %
27.01.2017 10:02 -0,4 C 1,1 C -1,1 C 77 % 0 lf 1017,3 hPa 0,0 l/m 2 min 0 min 142 W/m 31,4 km/h (5 Bft) 95,74 %
27.01.2017 10:04 -0,3 C 1,1 C -0,6 C 77 % 0 lf 1017,3 hPa 0,0 l/m 2 min 0 min 147 W/m 31,4 km/h (5 Bft) 93,62 %
27.01.2017 10:06 -0,3 C 1,1 C -0,6 C 77 % 0 lf 1017,3 hPa 0,0 l/m 2 min 0 min 152 W/m 25,1 km/h (4 Bft) 95,65 %
27.01.2017 10:08 -0,3 C 1,1 C -0,6 C 77 % 0 lf 1017,3 hPa 0,0 l/m 2 min 0 min 166 W/m 29,3 km/h (5 Bft) 89,36 %
27.01.2017 10:10 -0,2 C 1,1 C -0,6 C 76 % 0 lf 1017,4 hPa 0,0 l/m 2 min 0 min 171 W/m 29,3 km/h (5 Bft) 93,62 %
27.01.2017 10:12 -0,2 C 1,1 C -0,6 C 76 % 0 lf 1017,3 hPa 0,0 l/m 2 min 0 min 166 W/m 29,3 km/h (5 Bft) 91,49 %
27.01.2017 10:14 -0,1 C 1,1 C -0,6 C 76 % 0 lf 1017,3 hPa 0,0 l/m 2 min 0 min 171 W/m 31,4 km/h (5 Bft) 91,49 %
27.01.2017 10:16 -0,1 C 1,1 C -0,6 C 76 % 0 lf 1017,3 hPa 0,0 l/m 2 min 0 min 176 W/m 31,4 km/h (5 Bft) 95,74 %
27.01.2017 10:18 0,0 C 1,7 C -0,6 C 76 % 0 lf 1017,3 hPa 0,0 l/m 2 min 0 min 177 W/m 25,1 km/h (4 Bft) 93,48 %
27.01.2017 10:20 0,1 C 1,7 C -0,6 C 76 % 0 lf 1017,4 hPa 0,0 l/m 2 min 0 min 183 W/m 25,1 km/h (4 Bft) 91,49 %
27.01.2017 10:22 0,1 C 2,2 C 0,0 C 76 % 0 lf 1017,4 hPa 0,0 l/m 2 min 0 min 195 W/m 29,3 km/h (5 Bft) 91,49 %
27.01.2017 10:24 0,2 C 2,2 C 0,0 C 76 % 0 lf 1017,4 hPa 0,0 l/m 2 min 0 min 200 W/m 35,6 km/h (5 Bft) 97,87 %
27.01.2017 10:26 0,2 C 2,8 C 0,0 C 76 % 0 lf 1017,4 hPa 0,0 l/m 2 min 0 min 212 W/m 29,3 km/h (5 Bft) 91,49 %
27.01.2017 10:28 0,3 C 3,3 C 0,0 C 76 % 0 lf 1017,4 hPa 0,0 l/m 2 min 0 min 214 W/m 29,3 km/h (5 Bft) 89,36 %
27.01.2017 10:30 0,4 C 2,8 C 0,0 C 75 % 0 lf 1017,4 hPa 0,0 l/m 2 min 0 min 219 W/m 25,1 km/h (4 Bft) 95,65 %
27.01.2017 10:32 0,4 C 2,8 C 0,0 C 75 % 0 lf 1017,4 hPa 0,0 l/m 2 min 0 min 225 W/m 25,1 km/h (4 Bft) 95,74 %
27.01.2017 10:34 0,5 C 3,3 C 0,0 C 75 % 0 lf 1017,4 hPa 0,0 l/m 2 min 0 min 227 W/m 35,6 km/h (5 Bft) 93,62 %
27.01.2017 10:36 0,5 C 2,8 C 0,0 C 75 % 0 lf 1017,5 hPa 0,0 l/m 2 min 0 min 225 W/m 25,1 km/h (4 Bft) 95,74 %
27.01.2017 10:38 0,6 C 3,3 C 0,0 C 75 % 0 lf 1017,6 hPa 0,0 l/m 2 min 0 min 233 W/m 23,0 km/h (4 Bft) 89,36 %
27.01.2017 10:40 0,7 C 3,3 C 0,0 C 75 % 0 lf 1017,5 hPa 0,0 l/m 2 min 0 min 241 W/m 20,9 km/h (4 Bft) 97,87 %
27.01.2017 10:42 0,8 C 3,3 C 0,0 C 74 % 0 lf 1017,5 hPa 0,0 l/m 2 min 0 min 239 W/m 23,0 km/h (4 Bft) 97,83 %
27.01.2017 10:44 0,8 C 3,9 C 0,6 C 74 % 0 lf 1017,6 hPa 0,0 l/m 2 min 0 min 241 W/m 25,1 km/h (4 Bft) 93,62 %
27.01.2017 10:46 0,9 C 3,9 C 0,6 C 74 % 0 lf 1017,6 hPa 0,0 l/m 2 min 0 min 245 W/m 25,1 km/h (4 Bft) 91,49 %
27.01.2017 10:48 1,0 C 5,0 C 0,6 C 74 % 0 lf 1017,6 hPa 0,0 l/m 2 min 0 min 250 W/m 29,3 km/h (5 Bft) 95,74 %
27.01.2017 10:50 1,1 C 4,4 C 0,6 C 74 % 0 lf 1017,7 hPa 0,0 l/m 2 min 0 min 252 W/m 27,2 km/h (4 Bft) 95,74 %
27.01.2017 10:52 1,2 C 5,0 C 0,6 C 74 % 0 lf 1017,6 hPa 0,0 l/m 2 min 0 min 254 W/m 23,0 km/h (4 Bft) 93,48 %
27.01.2017 10:54 1,2 C 5,0 C 0,6 C 74 % 0 lf 1017,7 hPa 0,0 l/m 2 min 0 min 247 W/m 29,3 km/h (5 Bft) 93,62 %
27.01.2017 10:56 1,3 C 5,0 C 0,6 C 74 % 0 lf 1017,7 hPa 0,0 l/m 2 min 0 min 256 W/m 27,2 km/h (4 Bft) 95,74 %
27.01.2017 10:58 1,4 C 5,0 C 0,6 C 73 % 0 lf 1017,7 hPa 0,0 l/m 2 min 0 min 269 W/m 25,1 km/h (4 Bft) 97,87 %
27.01.2017 11:00 1,5 C 5,0 C 1,1 C 73 % 0 lf 1017,8 hPa 0,0 l/m 2 min 0 min 267 W/m 31,4 km/h (5 Bft) 95,74 %
27.01.2017 11:02 1,6 C 4,4 C 1,1 C 73 % 0 lf 1017,8 hPa 0,0 l/m 2 min 0 min 238 W/m 27,2 km/h (4 Bft) 95,74 %
27.01.2017 11:04 1,6 C 4,4 C 1,1 C 72 % 0 lf 1017,8 hPa 0,0 l/m 2 min 0 min 222 W/m 29,3 km/h (5 Bft) 95,65 %
27.01.2017 11:06 1,7 C 3,9 C 1,1 C 72 % 0 lf 1017,9 hPa 0,0 l/m 2 min 0 min 215 W/m 31,4 km/h (5 Bft) 93,62 %
27.01.2017 11:08 1,7 C 3,9 C 0,6 C 72 % 0 lf 1017,8 hPa 0,0 l/m 2 min 0 min 236 W/m 27,2 km/h (4 Bft) 97,87 %
27.01.2017 11:10 1,8 C 4,4 C 0,6 C 72 % 0 lf 1017,8 hPa 0,0 l/m 2 min 0 min 234 W/m 23,0 km/h (4 Bft) 100,00 %
27.01.2017 11:12 1,8 C 4,4 C 0,6 C 72 % 0 lf 1017,8 hPa 0,0 l/m 2 min 0 min 202 W/m 31,4 km/h (5 Bft) 95,74 %
27.01.2017 11:14 1,8 C 3,9 C 0,6 C 72 % 0 lf 1017,8 hPa 0,0 l/m 2 min 0 min 189 W/m 25,1 km/h (4 Bft) 97,87 %
27.01.2017 11:16 1,8 C 4,4 C 1,1 C 72 % 0 lf 1017,8 hPa 0,0 l/m 2 min 0 min 187 W/m 25,1 km/h (4 Bft) 93,48 %
27.01.2017 11:18 1,9 C 3,9 C 0,6 C 72 % 0 lf 1017,8 hPa 0,0 l/m 2 min 0 min 186 W/m 23,0 km/h (4 Bft) 97,87 %
27.01.2017 11:20 1,9 C 3,9 C 1,1 C 72 % 0 lf 1017,7 hPa 0,0 l/m 2 min 0 min 200 W/m 25,1 km/h (4 Bft) 93,62 %
27.01.2017 11:22 1,9 C 3,9 C 1,1 C 72 % 0 lf 1017,7 hPa 0,0 l/m 2 min 0 min 208 W/m 25,1 km/h (4 Bft) 95,74 %
27.01.2017 11:24 1,9 C 4,4 C 1,1 C 72 % 0 lf 1017,8 hPa 0,0 l/m 2 min 0 min 205 W/m 29,3 km/h (5 Bft) 95,74 %
27.01.2017 11:26 2,0 C 4,4 C 1,1 C 72 % 0 lf 1017,7 hPa 0,0 l/m 2 min 0 min 214 W/m 29,3 km/h (5 Bft) 95,74 %
27.01.2017 11:28 2,0 C 4,4 C 1,1 C 72 % 0 lf 1017,8 hPa 0,0 l/m 2 min 0 min 196 W/m 27,2 km/h (4 Bft) 91,30 %
27.01.2017 11:30 2,1 C 4,4 C 1,1 C 72 % 0 lf 1017,7 hPa 0,0 l/m 2 min 0 min 185 W/m 20,9 km/h (4 Bft) 95,74 %
27.01.2017 11:32 2,1 C 3,9 C 1,1 C 72 % 0 lf 1017,8 hPa 0,0 l/m 2 min 0 min 184 W/m 23,0 km/h (4 Bft) 97,87 %
27.01.2017 11:34 2,1 C 3,9 C 1,1 C 72 % 0 lf 1017,8 hPa 0,0 l/m 2 min 0 min 180 W/m 23,0 km/h (4 Bft) 97,87 %
27.01.2017 11:36 2,1 C 4,4 C 1,1 C 72 % 0 lf 1017,8 hPa 0,0 l/m 2 min 0 min 195 W/m 20,9 km/h (4 Bft) 97,87 %
27.01.2017 11:38 2,1 C 4,4 C 1,1 C 72 % 0 lf 1017,7 hPa 0,0 l/m 2 min 0 min 193 W/m 25,1 km/h (4 Bft) 97,87 %
27.01.2017 11:40 2,2 C 4,4 C 1,1 C 72 % 0 lf 1017,8 hPa 0,0 l/m 2 min 0 min 183 W/m 25,1 km/h (4 Bft) 97,83 %
27.01.2017 11:42 2,2 C 4,4 C 1,1 C 72 % 0 lf 1017,7 hPa 0,0 l/m 2 min 0 min 183 W/m 33,5 km/h (5 Bft) 97,87 %
27.01.2017 11:44 2,2 C 4,4 C 1,1 C 71 % 0 lf 1017,8 hPa 0,0 l/m 2 min 0 min 185 W/m 23,0 km/h (4 Bft) 93,62 %
27.01.2017 11:46 2,2 C 5,0 C 1,1 C 72 % 0 lf 1017,7 hPa 0,0 l/m 2 min 0 min 221 W/m 25,1 km/h (4 Bft) 95,74 %
27.01.2017 11:48 2,3 C 5,6 C 1,1 C 72 % 0 lf 1017,7 hPa 0,0 l/m 2 min 0 min 261 W/m 23,0 km/h (4 Bft) 97,87 %
27.01.2017 11:50 2,3 C 6,1 C 1,1 C 72 % 0 lf 1017,7 hPa 0,0 l/m 2 min 0 min 284 W/m 23,0 km/h (4 Bft) 95,74 %
27.01.2017 11:52 2,3 C 6,1 C 1,1 C 71 % 0 lf 1017,7 hPa 0,0 l/m 2 min 0 min 309 W/m 27,2 km/h (4 Bft) 95,65 %
27.01.2017 11:54 2,4 C 6,1 C 1,1 C 71 % 0 lf 1017,6 hPa 0,0 l/m 2 min 0 min 302 W/m 27,2 km/h (4 Bft) 97,87 %
27.01.2017 11:56 2,5 C 5,6 C 1,7 C 71 % 0 lf 1017,6 hPa 0,0 l/m 2 min 0 min 287 W/m 31,4 km/h (5 Bft) 93,62 %
27.01.2017 11:58 2,6 C 6,7 C 1,7 C 71 % 0 lf 1017,6 hPa 0,0 l/m 2 min 0 min 312 W/m 23,0 km/h (4 Bft) 97,87 %
27.01.2017 12:00 2,6 C 6,1 C 1,7 C 71 % 0 lf 1017,6 hPa 0,0 l/m 2 min 0 min 312 W/m 25,1 km/h (4 Bft) 97,87 %
27.01.2017 12:02 2,7 C 6,7 C 1,7 C 71 % 0 lf 1017,6 hPa 0,0 l/m 2 min 0 min 316 W/m 23,0 km/h (4 Bft) 97,83 %
27.01.2017 12:04 2,8 C 6,1 C 1,7 C 71 % 0 lf 1017,6 hPa 0,0 l/m 2 min 0 min 288 W/m 25,1 km/h (4 Bft) 100,00 %
27.01.2017 12:06 2,8 C 6,7 C 1,7 C 71 % 0 lf 1017,7 hPa 0,0 l/m 2 min 0 min 330 W/m 25,1 km/h (4 Bft) 87,93 %
27.01.2017 12:08 2,9 C 7,2 C 1,7 C 71 % 0 lf 1017,6 hPa 0,0 l/m 2 min 0 min 324 W/m 18,8 km/h (3 Bft) 97,87 %
27.01.2017 12:10 3,0 C 7,2 C 1,7 C 71 % 0 lf 1017,5 hPa 0,0 l/m 2 min 0 min 311 W/m 25,1 km/h (4 Bft) 95,74 %
27.01.2017 12:12 3,1 C 6,7 C 1,7 C 70 % 0 lf 1017,6 hPa 0,0 l/m 2 min 0 min 277 W/m 25,1 km/h (4 Bft) 97,87 %
27.01.2017 12:14 3,1 C 7,2 C 1,7 C 70 % 0 lf 1017,6 hPa 0,0 l/m 2 min 0 min 269 W/m 20,9 km/h (4 Bft) 95,74 %
27.01.2017 12:16 3,2 C 6,7 C 1,7 C 70 % 0 lf 1017,6 hPa 0,0 l/m 2 min 0 min 261 W/m 31,4 km/h (5 Bft) 95,74 %
27.01.2017 12:18 3,2 C 5,6 C 1,7 C 70 % 0 lf 1017,5 hPa 0,0 l/m 2 min 0 min 191 W/m 25,1 km/h (4 Bft) 97,83 %
27.01.2017 12:20 3,3 C 5,6 C 1,7 C 69 % 0 lf 1017,5 hPa 0,0 l/m 2 min 0 min 200 W/m 25,1 km/h (4 Bft) 95,74 %
27.01.2017 12:22 3,3 C 5,6 C 1,7 C 69 % 0 lf 1017,5 hPa 0,0 l/m 2 min 0 min 237 W/m 18,8 km/h (3 Bft) 95,74 %
27.01.2017 12:24 3,3 C 5,6 C 1,7 C 70 % 0 lf 1017,6 hPa 0,0 l/m 2 min 0 min 263 W/m 23,0 km/h (4 Bft) 97,87 %
27.01.2017 12:26 3,3 C 5,6 C 2,2 C 69 % 0 lf 1017,5 hPa 0,0 l/m 2 min 0 min 245 W/m 20,9 km/h (4 Bft) 93,62 %
27.01.2017 12:28 3,4 C 5,6 C 2,2 C 70 % 0 lf 1017,6 hPa 0,0 l/m 2 min 0 min 217 W/m 29,3 km/h (5 Bft) 93,62 %
27.01.2017 12:30 3,4 C 5,6 C 2,2 C 69 % 0 lf 1017,6 hPa 0,0 l/m 2 min 0 min 213 W/m 23,0 km/h (4 Bft) 95,65 %
27.01.2017 12:32 3,4 C 5,6 C 2,2 C 69 % 0 lf 1017,6 hPa 0,0 l/m 2 min 0 min 220 W/m 23,0 km/h (4 Bft) 91,49 %
27.01.2017 12:34 3,4 C 5,6 C 2,2 C 69 % 0 lf 1017,6 hPa 0,0 l/m 2 min 0 min 229 W/m 31,4 km/h (5 Bft) 95,74 %
27.01.2017 12:36 3,4 C 5,0 C 2,2 C 69 % 0 lf 1017,6 hPa 0,0 l/m 2 min 0 min 197 W/m 31,4 km/h (5 Bft) 95,74 %
27.01.2017 12:38 3,4 C 5,0 C 2,2 C 69 % 0 lf 1017,6 hPa 0,0 l/m 0 min 0 min 162 W/m 23,0 km/h (4 Bft) 95,74 %
27.01.2017 12:40 3,4 C 5,0 C 2,2 C 69 % 0 lf 1017,6 hPa 0,0 l/m 0 min 0 min 144 W/m 25,1 km/h (4 Bft) 97,83 %
27.01.2017 12:42 3,4 C 4,4 C 2,2 C 69 % 0 lf 1017,5 hPa 0,0 l/m 0 min 0 min 146 W/m 31,4 km/h (5 Bft) 93,62 %
27.01.2017 12:44 3,4 C 4,4 C 2,2 C 69 % 0 lf 1017,5 hPa 0,0 l/m 0 min 0 min 144 W/m 29,3 km/h (5 Bft) 95,74 %
27.01.2017 12:46 3,4 C 4,4 C 2,2 C 69 % 0 lf 1017,5 hPa 0,0 l/m 0 min 0 min 154 W/m 20,9 km/h (4 Bft) 97,87 %
27.01.2017 12:48 3,4 C 4,4 C 2,2 C 69 % 0 lf 1017,5 hPa 0,0 l/m 0 min 0 min 148 W/m 27,2 km/h (4 Bft) 97,87 %
27.01.2017 12:50 3,3 C 4,4 C 2,2 C 69 % 0 lf 1017,4 hPa 0,0 l/m 0 min 0 min 143 W/m 25,1 km/h (4 Bft) 93,62 %
27.01.2017 12:52 3,3 C 3,9 C 1,7 C 69 % 0 lf 1017,5 hPa 0,0 l/m 0 min 0 min 146 W/m 31,4 km/h (5 Bft) 95,74 %
27.01.2017 12:54 3,2 C 3,9 C 1,7 C 69 % 0 lf 1017,5 hPa 0,0 l/m 0 min 0 min 152 W/m 23,0 km/h (4 Bft) 97,96 %
27.01.2017 12:56 3,2 C 3,9 C 2,2 C 69 % 0 lf 1017,5 hPa 0,0 l/m 0 min 0 min 157 W/m 29,3 km/h (5 Bft) 95,74 %
27.01.2017 12:58 3,2 C 4,4 C 2,2 C 69 % 0 lf 1017,5 hPa 0,0 l/m 0 min 0 min 175 W/m 25,1 km/h (4 Bft) 93,62 %
27.01.2017 13:00 3,1 C 4,4 C 2,2 C 69 % 0 lf 1017,5 hPa 0,0 l/m 2 min 0 min 182 W/m 18,8 km/h (3 Bft) 97,87 %
27.01.2017 13:02 3,1 C 4,4 C 2,2 C 70 % 0 lf 1017,4 hPa 0,0 l/m 0 min 0 min 175 W/m 23,0 km/h (4 Bft) 91,49 %
27.01.2017 13:04 3,1 C 4,4 C 2,2 C 70 % 0 lf 1017,5 hPa 0,0 l/m 0 min 0 min 174 W/m 23,0 km/h (4 Bft) 93,48 %
27.01.2017 13:06 3,1 C 4,4 C 2,2 C 70 % 0 lf 1017,5 hPa 0,0 l/m 0 min 0 min 170 W/m 25,1 km/h (4 Bft) 89,36 %
27.01.2017 13:08 3,1 C 4,4 C 2,2 C 70 % 0 lf 1017,4 hPa 0,0 l/m 2 min 0 min 175 W/m 23,0 km/h (4 Bft) 100,00 %
27.01.2017 13:10 3,1 C 4,4 C 2,8 C 70 % 0 lf 1017,4 hPa 0,0 l/m 2 min 0 min 178 W/m 23,0 km/h (4 Bft) 100,00 %
27.01.2017 13:12 3,1 C 4,4 C 2,8 C 70 % 0 lf 1017,4 hPa 0,0 l/m 0 min 0 min 172 W/m 25,1 km/h (4 Bft) 100,00 %
27.01.2017 13:14 3,1 C 4,4 C 2,8 C 70 % 0 lf 1017,4 hPa 0,0 l/m 0 min 0 min 168 W/m 25,1 km/h (4 Bft) 97,83 %
27.01.2017 13:16 3,1 C 4,4 C 2,8 C 70 % 0 lf 1017,4 hPa 0,0 l/m 0 min 0 min 169 W/m 23,0 km/h (4 Bft) 93,62 %
27.01.2017 13:18 3,1 C 4,4 C 2,8 C 71 % 0 lf 1017,4 hPa 0,0 l/m 2 min 0 min 179 W/m 23,0 km/h (4 Bft) 100,00 %
27.01.2017 13:20 3,2 C 4,4 C 2,8 C 70 % 0 lf 1017,4 hPa 0,0 l/m 2 min 0 min 179 W/m 23,0 km/h (4 Bft) 97,87 %
27.01.2017 13:22 3,2 C 4,4 C 2,8 C 71 % 0 lf 1017,3 hPa 0,0 l/m 2 min 0 min 181 W/m 16,7 km/h (3 Bft) 100,00 %
27.01.2017 13:24 3,2 C 5,0 C 2,8 C 71 % 0 lf 1017,3 hPa 0,0 l/m 2 min 0 min 198 W/m 18,8 km/h (3 Bft) 95,74 %
27.01.2017 13:26 3,2 C 5,0 C 2,8 C 71 % 0 lf 1017,2 hPa 0,0 l/m 2 min 0 min 192 W/m 18,8 km/h (3 Bft) 97,83 %
27.01.2017 13:28 3,3 C 5,0 C 3,3 C 71 % 0 lf 1017,1 hPa 0,0 l/m 2 min 0 min 195 W/m 18,8 km/h (3 Bft) 91,49 %
27.01.2017 13:30 3,3 C 5,0 C 3,3 C 71 % 0 lf 1017,1 hPa 0,0 l/m 2 min 0 min 192 W/m 20,9 km/h (4 Bft) 93,62 %
27.01.2017 13:32 3,3 C 5,0 C 3,3 C 71 % 0 lf 1017,1 hPa 0,0 l/m 2 min 0 min 193 W/m 23,0 km/h (4 Bft) 93,62 %
27.01.2017 13:34 3,4 C 5,0 C 3,3 C 71 % 0 lf 1017,2 hPa 0,0 l/m 2 min 0 min 203 W/m 18,8 km/h (3 Bft) 95,74 %
27.01.2017 13:36 3,4 C 5,0 C 3,3 C 71 % 0 lf 1017,1 hPa 0,0 l/m 2 min 0 min 201 W/m 25,1 km/h (4 Bft) 95,74 %
27.01.2017 13:38 3,4 C 5,0 C 3,3 C 71 % 0 lf 1017,1 hPa 0,0 l/m 2 min 0 min 191 W/m 20,9 km/h (4 Bft) 93,62 %
27.01.2017 13:40 3,5 C 5,0 C 3,3 C 71 % 0 lf 1017,1 hPa 0,0 l/m 2 min 0 min 194 W/m 29,3 km/h (5 Bft) 95,65 %
27.01.2017 13:42 3,6 C 5,0 C 3,3 C 71 % 0 lf 1017,1 hPa 0,0 l/m 2 min 0 min 193 W/m 18,8 km/h (3 Bft) 91,49 %
27.01.2017 13:44 3,6 C 5,0 C 3,3 C 70 % 0 lf 1017,1 hPa 0,0 l/m 2 min 0 min 198 W/m 27,2 km/h (4 Bft) 95,74 %
27.01.2017 13:46 3,7 C 5,6 C 3,3 C 71 % 0 lf 1017,1 hPa 0,0 l/m 2 min 0 min 201 W/m 23,0 km/h (4 Bft) 95,74 %
27.01.2017 13:48 3,7 C 5,6 C 3,3 C 71 % 0 lf 1017,1 hPa 0,0 l/m 2 min 0 min 219 W/m 20,9 km/h (4 Bft) 95,74 %
27.01.2017 13:50 3,7 C 5,6 C 3,3 C 71 % 0 lf 1017,1 hPa 0,0 l/m 2 min 0 min 216 W/m 23,0 km/h (4 Bft) 93,48 %
27.01.2017 13:52 3,8 C 5,6 C 3,3 C 70 % 0 lf 1017,0 hPa 0,0 l/m 2 min 0 min 212 W/m 18,8 km/h (3 Bft) 89,36 %
27.01.2017 13:54 3,8 C 5,6 C 3,3 C 70 % 0 lf 1017,1 hPa 0,0 l/m 2 min 0 min 207 W/m 16,7 km/h (3 Bft) 95,74 %
27.01.2017 13:56 3,9 C 5,6 C 3,9 C 70 % 0 lf 1017,1 hPa 0,0 l/m 2 min 0 min 216 W/m 20,9 km/h (4 Bft) 95,74 %
27.01.2017 13:58 3,9 C 6,1 C 3,9 C 70 % 0 lf 1017,1 hPa 0,0 l/m 2 min 0 min 229 W/m 18,8 km/h (3 Bft) 95,74 %
27.01.2017 14:00 3,9 C 6,7 C 3,9 C 70 % 0 lf 1017,1 hPa 0,0 l/m 2 min 0 min 243 W/m 14,6 km/h (3 Bft) 91,49 %
27.01.2017 14:02 4,0 C 7,2 C 3,9 C 70 % 0 lf 1017,1 hPa 0,0 l/m 2 min 0 min 234 W/m 14,6 km/h (3 Bft) 93,48 %
27.01.2017 14:04 4,1 C 6,7 C 3,9 C 70 % 0 lf 1017,1 hPa 0,0 l/m 2 min 0 min 223 W/m 14,6 km/h (3 Bft) 93,62 %
27.01.2017 14:06 4,2 C 6,7 C 3,9 C 70 % 0 lf 1017,1 hPa 0,0 l/m 2 min 0 min 224 W/m 18,8 km/h (3 Bft) 91,49 %
27.01.2017 14:08 4,2 C 6,7 C 3,9 C 70 % 0 lf 1017,0 hPa 0,0 l/m 2 min 0 min 224 W/m 23,0 km/h (4 Bft) 97,87 %
27.01.2017 14:10 4,3 C 7,2 C 3,9 C 70 % 0 lf 1017,0 hPa 0,0 l/m 2 min 0 min 224 W/m 14,6 km/h (3 Bft) 95,74 %
27.01.2017 14:12 4,3 C 7,2 C 3,9 C 69 % 0 lf 1017,0 hPa 0,0 l/m 2 min 0 min 214 W/m 16,7 km/h (3 Bft) 95,74 %
27.01.2017 14:14 4,4 C 7,2 C 3,9 C 70 % 0 lf 1017,0 hPa 0,0 l/m 2 min 0 min 199 W/m 12,6 km/h (3 Bft) 91,30 %
27.01.2017 14:16 4,4 C 6,7 C 3,9 C 69 % 0 lf 1016,9 hPa 0,0 l/m 2 min 0 min 190 W/m 18,8 km/h (3 Bft) 93,62 %
27.01.2017 14:18 4,5 C 6,7 C 3,9 C 69 % 0 lf 1016,9 hPa 0,0 l/m 2 min 0 min 176 W/m 20,9 km/h (4 Bft) 93,62 %
27.01.2017 14:20 4,5 C 6,7 C 3,9 C 68 % 0 lf 1017,0 hPa 0,0 l/m 2 min 0 min 178 W/m 18,8 km/h (3 Bft) 97,87 %
27.01.2017 14:22 4,6 C 6,7 C 3,9 C 68 % 0 lf 1016,9 hPa 0,0 l/m 2 min 0 min 193 W/m 18,8 km/h (3 Bft) 95,74 %
27.01.2017 14:24 4,6 C 6,7 C 3,9 C 68 % 0 lf 1016,9 hPa 0,0 l/m 2 min 0 min 195 W/m 16,7 km/h (3 Bft) 97,83 %
27.01.2017 14:26 4,6 C 6,7 C 3,9 C 68 % 0 lf 1016,9 hPa 0,0 l/m 2 min 0 min 190 W/m 14,6 km/h (3 Bft) 97,87 %
27.01.2017 14:28 4,7 C 7,8 C 3,9 C 68 % 0 lf 1016,8 hPa 0,0 l/m 2 min 0 min 219 W/m 20,9 km/h (4 Bft) 97,87 %
27.01.2017 14:30 4,7 C 7,8 C 3,9 C 68 % 0 lf 1016,8 hPa 0,0 l/m 2 min 0 min 199 W/m 20,9 km/h (4 Bft) 93,62 %
27.01.2017 14:32 4,7 C 7,8 C 3,9 C 68 % 0 lf 1016,8 hPa 0,0 l/m 2 min 0 min 188 W/m 23,0 km/h (4 Bft) 95,74 %
27.01.2017 14:34 4,7 C 7,2 C 3,9 C 68 % 0 lf 1016,8 hPa 0,0 l/m 2 min 0 min 175 W/m 20,9 km/h (4 Bft) 97,87 %
27.01.2017 14:36 4,8 C 6,7 C 3,9 C 68 % 0 lf 1016,8 hPa 0,0 l/m 2 min 0 min 161 W/m 29,3 km/h (5 Bft) 97,83 %
27.01.2017 14:38 4,8 C 6,7 C 3,9 C 68 % 0 lf 1016,8 hPa 0,0 l/m 2 min 0 min 152 W/m 18,8 km/h (3 Bft) 93,62 %
27.01.2017 14:40 4,8 C 6,1 C 3,9 C 68 % 0 lf 1016,8 hPa 0,0 l/m 0 min 0 min 138 W/m 18,8 km/h (3 Bft) 97,87 %
27.01.2017 14:42 4,8 C 5,6 C 3,3 C 68 % 0 lf 1016,8 hPa 0,0 l/m 0 min 0 min 131 W/m 16,7 km/h (3 Bft) 95,74 %
27.01.2017 14:44 4,8 C 5,6 C 3,3 C 68 % 0 lf 1016,9 hPa 0,0 l/m 0 min 0 min 124 W/m 18,8 km/h (3 Bft) 97,87 %
27.01.2017 14:46 4,8 C 5,6 C 3,3 C 68 % 0 lf 1016,8 hPa 0,0 l/m 0 min 0 min 118 W/m 20,9 km/h (4 Bft) 95,74 %
27.01.2017 14:48 4,7 C 5,6 C 3,3 C 67 % 0 lf 1016,7 hPa 0,0 l/m 0 min 0 min 114 W/m 14,6 km/h (3 Bft) 95,65 %
27.01.2017 14:50 4,7 C 5,6 C 3,3 C 67 % 0 lf 1016,8 hPa 0,0 l/m 0 min 0 min 109 W/m 20,9 km/h (4 Bft) 97,87 %
27.01.2017 14:52 4,7 C 5,0 C 3,3 C 67 % 0 lf 1016,8 hPa 0,0 l/m 0 min 0 min 107 W/m 20,9 km/h (4 Bft) 97,87 %
27.01.2017 14:54 4,7 C 5,0 C 2,8 C 67 % 0 lf 1016,8 hPa 0,0 l/m 0 min 0 min 106 W/m 16,7 km/h (3 Bft) 95,74 %
27.01.2017 14:56 4,6 C 5,6 C 2,8 C 67 % 0 lf 1016,8 hPa 0,0 l/m 0 min 0 min 105 W/m 20,9 km/h (4 Bft) 95,74 %
27.01.2017 14:58 4,6 C 5,6 C 2,8 C 67 % 0 lf 1016,8 hPa 0,0 l/m 0 min 0 min 105 W/m 20,9 km/h (4 Bft) 97,87 %
27.01.2017 15:00 4,6 C 5,0 C 2,8 C 68 % 0 lf 1016,9 hPa 0,0 l/m 0 min 0 min 104 W/m 18,8 km/h (3 Bft) 95,65 %
27.01.2017 15:02 4,5 C 5,0 C 2,8 C 68 % 0 lf 1016,8 hPa 0,0 l/m 0 min 0 min 100 W/m 20,9 km/h (4 Bft) 100,00 %
27.01.2017 15:04 4,5 C 5,0 C 2,8 C 68 % 0 lf 1016,9 hPa 0,0 l/m 0 min 0 min 98 W/m 20,9 km/h (4 Bft) 97,87 %
27.01.2017 15:06 4,4 C 5,0 C 2,8 C 68 % 0 lf 1016,8 hPa 0,0 l/m 0 min 0 min 100 W/m 23,0 km/h (4 Bft) 97,87 %
27.01.2017 15:08 4,4 C 5,0 C 2,8 C 68 % 0 lf 1016,9 hPa 0,0 l/m 0 min 0 min 101 W/m 18,8 km/h (3 Bft) 95,74 %
27.01.2017 15:10 4,4 C 5,0 C 2,8 C 68 % 0 lf 1016,9 hPa 0,0 l/m 0 min 0 min 102 W/m 25,1 km/h (4 Bft) 95,74 %
27.01.2017 15:12 4,3 C 5,0 C 2,8 C 68 % 0 lf 1016,8 hPa 0,0 l/m 0 min 0 min 102 W/m 18,8 km/h (3 Bft) 95,65 %
27.01.2017 15:14 4,3 C 5,0 C 2,8 C 68 % 0 lf 1016,9 hPa 0,0 l/m 0 min 0 min 102 W/m 25,1 km/h (4 Bft) 97,87 %
27.01.2017 15:16 4,3 C 5,0 C 2,8 C 68 % 0 lf 1016,9 hPa 0,0 l/m 0 min 0 min 100 W/m 25,1 km/h (4 Bft) 97,87 %
27.01.2017 15:18 4,3 C 5,0 C 2,8 C 68 % 0 lf 1016,9 hPa 0,0 l/m 0 min 0 min 98 W/m 16,7 km/h (3 Bft) 97,87 %
27.01.2017 15:20 4,3 C 5,0 C 2,8 C 68 % 0 lf 1016,9 hPa 0,0 l/m 0 min 0 min 97 W/m 18,8 km/h (3 Bft) 97,87 %
27.01.2017 15:22 4,2 C 5,0 C 2,8 C 68 % 0 lf 1016,9 hPa 0,0 l/m 0 min 0 min 94 W/m 20,9 km/h (4 Bft) 97,87 %
27.01.2017 15:24 4,2 C 5,0 C 2,8 C 68 % 0 lf 1016,9 hPa 0,0 l/m 0 min 0 min 91 W/m 25,1 km/h (4 Bft) 93,48 %
27.01.2017 15:26 4,2 C 5,0 C 2,8 C 69 % 0 lf 1016,9 hPa 0,0 l/m 0 min 0 min 89 W/m 23,0 km/h (4 Bft) 97,87 %
27.01.2017 15:28 4,2 C 5,0 C 2,8 C 69 % 0 lf 1016,9 hPa 0,0 l/m 0 min 0 min 86 W/m 25,1 km/h (4 Bft) 97,87 %
27.01.2017 15:30 4,2 C 4,4 C 2,8 C 69 % 0 lf 1016,9 hPa 0,0 l/m 0 min 0 min 84 W/m 23,0 km/h (4 Bft) 97,87 %
27.01.2017 15:32 4,2 C 4,4 C 2,8 C 69 % 0 lf 1016,9 hPa 0,0 l/m 0 min 0 min 82 W/m 23,0 km/h (4 Bft) 95,74 %
27.01.2017 15:34 4,1 C 4,4 C 2,8 C 69 % 0 lf 1016,9 hPa 0,0 l/m 0 min 0 min 79 W/m 20,9 km/h (4 Bft) 97,83 %
27.01.2017 15:36 4,1 C 4,4 C 2,8 C 69 % 0 lf 1016,9 hPa 0,0 l/m 0 min 0 min 77 W/m 20,9 km/h (4 Bft) 95,74 %
27.01.2017 15:38 4,1 C 4,4 C 2,2 C 69 % 0 lf 1016,9 hPa 0,0 l/m 0 min 0 min 76 W/m 20,9 km/h (4 Bft) 97,87 %
27.01.2017 15:40 4,1 C 4,4 C 2,2 C 69 % 0 lf 1016,9 hPa 0,0 l/m 0 min 0 min 74 W/m 25,1 km/h (4 Bft) 95,74 %
27.01.2017 15:42 4,1 C 4,4 C 2,2 C 69 % 0 lf 1016,9 hPa 0,0 l/m 0 min 0 min 73 W/m 20,9 km/h (4 Bft) 93,62 %
27.01.2017 15:44 4,0 C 4,4 C 2,2 C 69 % 0 lf 1016,9 hPa 0,0 l/m 0 min 0 min 71 W/m 23,0 km/h (4 Bft) 97,87 %
27.01.2017 15:46 4,0 C 4,4 C 2,2 C 69 % 0 lf 1017,0 hPa 0,0 l/m 0 min 0 min 69 W/m 18,8 km/h (3 Bft) 97,83 %
27.01.2017 15:48 3,9 C 4,4 C 2,2 C 69 % 0 lf 1017,0 hPa 0,0 l/m 0 min 0 min 67 W/m 27,2 km/h (4 Bft) 89,36 %
27.01.2017 15:50 3,9 C 4,4 C 2,2 C 69 % 0 lf 1016,9 hPa 0,0 l/m 0 min 0 min 66 W/m 18,8 km/h (3 Bft) 91,49 %
27.01.2017 15:52 3,9 C 4,4 C 2,2 C 69 % 0 lf 1016,9 hPa 0,0 l/m 0 min 0 min 64 W/m 18,8 km/h (3 Bft) 97,87 %
27.01.2017 15:54 3,9 C 4,4 C 2,2 C 69 % 0 lf 1017,0 hPa 0,0 l/m 0 min 0 min 63 W/m 20,9 km/h (4 Bft) 97,87 %
27.01.2017 15:56 3,9 C 4,4 C 2,2 C 69 % 0 lf 1017,0 hPa 0,0 l/m 0 min 0 min 61 W/m 18,8 km/h (3 Bft) 100,00 %
27.01.2017 15:58 3,9 C 4,4 C 2,2 C 69 % 0 lf 1017,0 hPa 0,0 l/m 0 min 0 min 59 W/m 18,8 km/h (3 Bft) 97,83 %
27.01.2017 16:00 3,9 C 4,4 C 2,2 C 69 % 0 lf 1017,0 hPa 0,0 l/m 0 min 0 min 57 W/m 18,8 km/h (3 Bft) 100,00 %
27.01.2017 16:02 3,8 C 4,4 C 2,2 C 69 % 0 lf 1017,0 hPa 0,0 l/m 0 min 0 min 55 W/m 20,9 km/h (4 Bft) 97,87 %
27.01.2017 16:04 3,8 C 4,4 C 2,2 C 70 % 0 lf 1017,0 hPa 0,0 l/m 0 min 0 min 53 W/m 16,7 km/h (3 Bft) 95,74 %
27.01.2017 16:06 3,8 C 4,4 C 1,7 C 70 % 0 lf 1016,9 hPa 0,0 l/m 0 min 0 min 51 W/m 16,7 km/h (3 Bft) 93,62 %
27.01.2017 16:08 3,8 C 3,9 C 1,7 C 70 % 0 lf 1017,0 hPa 0,0 l/m 0 min 0 min 50 W/m 16,7 km/h (3 Bft) 100,00 %
27.01.2017 16:10 3,7 C 3,9 C 1,7 C 70 % 0 lf 1017,0 hPa 0,0 l/m 0 min 0 min 47 W/m 14,6 km/h (3 Bft) 100,00 %
27.01.2017 16:12 3,7 C 3,9 C 1,7 C 70 % 0 lf 1017,0 hPa 0,0 l/m 0 min 0 min 46 W/m 16,7 km/h (3 Bft) 97,87 %
27.01.2017 16:14 3,7 C 3,9 C 1,7 C 70 % 0 lf 1017,0 hPa 0,0 l/m 0 min 0 min 44 W/m 16,7 km/h (3 Bft) 97,87 %
27.01.2017 16:16 3,7 C 3,9 C 1,7 C 70 % 0 lf 1017,0 hPa 0,0 l/m 0 min 0 min 42 W/m 16,7 km/h (3 Bft) 100,00 %
27.01.2017 16:18 3,7 C 3,9 C 1,7 C 70 % 0 lf 1017,0 hPa 0,0 l/m 0 min 0 min 40 W/m 14,6 km/h (3 Bft) 97,87 %
27.01.2017 16:20 3,6 C 3,9 C 1,7 C 70 % 0 lf 1017,0 hPa 0,0 l/m 0 min 0 min 39 W/m 14,6 km/h (3 Bft) 97,87 %
27.01.2017 16:22 3,6 C 3,9 C 1,7 C 70 % 0 lf 1017,0 hPa 0,0 l/m 0 min 0 min 38 W/m 16,7 km/h (3 Bft) 95,65 %
27.01.2017 16:24 3,6 C 3,9 C 1,7 C 70 % 0 lf 1017,0 hPa 0,0 l/m 0 min 0 min 37 W/m 16,7 km/h (3 Bft) 95,74 %
27.01.2017 16:26 3,6 C 3,9 C 1,7 C 70 % 0 lf 1017,1 hPa 0,0 l/m 0 min 0 min 35 W/m 14,6 km/h (3 Bft) 95,74 %
27.01.2017 16:28 3,6 C 3,9 C 1,1 C 70 % 0 lf 1017,1 hPa 0,0 l/m 0 min 0 min 35 W/m 18,8 km/h (3 Bft) 97,87 %
27.01.2017 16:30 3,5 C 3,9 C 1,1 C 70 % 0 lf 1017,0 hPa 0,0 l/m 0 min 0 min 33 W/m 14,6 km/h (3 Bft) 95,74 %
27.01.2017 16:32 3,5 C 3,9 C 1,1 C 70 % 0 lf 1017,1 hPa 0,0 l/m 0 min 0 min 33 W/m 16,7 km/h (3 Bft) 97,87 %
27.01.2017 16:34 3,4 C 3,9 C 1,1 C 70 % 0 lf 1017,1 hPa 0,0 l/m 0 min 0 min 32 W/m 18,8 km/h (3 Bft) 93,48 %
27.01.2017 16:36 3,4 C 3,9 C 1,1 C 70 % 0 lf 1017,2 hPa 0,0 l/m 0 min 0 min 30 W/m 18,8 km/h (3 Bft) 95,74 %
27.01.2017 16:38 3,4 C 3,9 C 1,1 C 70 % 0 lf 1017,1 hPa 0,0 l/m 0 min 0 min 28 W/m 18,8 km/h (3 Bft) 93,62 %
27.01.2017 16:40 3,4 C 3,9 C 1,1 C 70 % 0 lf 1017,1 hPa 0,0 l/m 0 min 0 min 27 W/m 23,0 km/h (4 Bft) 91,49 %
27.01.2017 16:42 3,4 C 3,9 C 1,1 C 71 % 0 lf 1017,0 hPa 0,0 l/m 0 min 0 min 26 W/m 27,2 km/h (4 Bft) 95,74 %
27.01.2017 16:44 3,3 C 3,3 C 1,1 C 71 % 0 lf 1017,0 hPa 0,0 l/m 0 min 0 min 25 W/m 25,1 km/h (4 Bft) 93,62 %
27.01.2017 16:46 3,3 C 3,3 C 1,1 C 71 % 0 lf 1017,0 hPa 0,0 l/m 0 min 0 min 23 W/m 18,8 km/h (3 Bft) 89,13 %
27.01.2017 16:48 3,3 C 3,3 C 1,1 C 71 % 0 lf 1017,1 hPa 0,0 l/m 0 min 0 min 22 W/m 23,0 km/h (4 Bft) 93,62 %
27.01.2017 16:50 3,3 C 3,3 C 1,1 C 71 % 0 lf 1017,2 hPa 0,0 l/m 0 min 0 min 20 W/m 20,9 km/h (4 Bft) 93,62 %
27.01.2017 16:52 3,3 C 3,3 C 1,1 C 71 % 0 lf 1017,1 hPa 0,0 l/m 0 min 0 min 19 W/m 20,9 km/h (4 Bft) 93,62 %
27.01.2017 16:54 3,2 C 3,3 C 1,1 C 71 % 0 lf 1017,1 hPa 0,0 l/m 0 min 0 min 18 W/m 20,9 km/h (4 Bft) 93,62 %
27.01.2017 16:56 3,2 C 3,3 C 1,1 C 71 % 0 lf 1017,0 hPa 0,0 l/m 0 min 0 min 16 W/m 16,7 km/h (3 Bft) 91,30 %
27.01.2017 16:58 3,2 C 3,3 C 1,1 C 71 % 0 lf 1017,1 hPa 0,0 l/m 0 min 0 min 15 W/m 16,7 km/h (3 Bft) 91,49 %
27.01.2017 17:00 3,2 C 3,3 C 0,6 C 71 % 0 lf 1017,1 hPa 0,0 l/m 0 min 0 min 13 W/m 23,0 km/h (4 Bft) 93,62 %
27.01.2017 17:02 3,1 C 3,3 C 0,6 C 71 % 0 lf 1017,1 hPa 0,0 l/m 0 min 0 min 12 W/m 20,9 km/h (4 Bft) 93,62 %
27.01.2017 17:04 3,1 C 3,3 C 0,6 C 72 % 0 lf 1017,2 hPa 0,0 l/m 0 min 0 min 11 W/m 16,7 km/h (3 Bft) 95,74 %
27.01.2017 17:06 3,1 C 3,3 C 0,6 C 72 % 0 lf 1017,2 hPa 0,0 l/m 0 min 0 min 10 W/m 23,0 km/h (4 Bft) 97,87 %
27.01.2017 17:08 3,0 C 2,8 C 0,6 C 72 % 0 lf 1017,2 hPa 0,0 l/m 0 min 0 min 9 W/m 12,6 km/h (3 Bft) 95,65 %
27.01.2017 17:10 3,0 C 2,8 C 0,6 C 72 % 0 lf 1017,1 hPa 0,0 l/m 0 min 0 min 7 W/m 20,9 km/h (4 Bft) 93,62 %
27.01.2017 17:12 2,9 C 2,8 C 0,6 C 72 % 0 lf 1017,2 hPa 0,0 l/m 0 min 0 min 7 W/m 23,0 km/h (4 Bft) 93,62 %
27.01.2017 17:14 2,9 C 2,8 C 0,6 C 72 % 0 lf 1017,1 hPa 0,0 l/m 0 min 0 min 5 W/m 14,6 km/h (3 Bft) 93,62 %
27.01.2017 17:16 2,9 C 2,8 C 0,6 C 72 % 0 lf 1017,1 hPa 0,0 l/m 0 min 0 min 5 W/m 18,8 km/h (3 Bft) 93,62 %
27.01.2017 17:18 2,9 C 2,8 C 0,6 C 72 % 0 lf 1017,1 hPa 0,0 l/m 0 min 0 min 5 W/m 23,0 km/h (4 Bft) 97,87 %
27.01.2017 17:20 2,8 C 2,8 C 0,6 C 73 % 0 lf 1017,1 hPa 0,0 l/m 0 min 0 min 5 W/m 23,0 km/h (4 Bft) 95,65 %
27.01.2017 17:22 2,8 C 2,8 C 0,6 C 72 % 0 lf 1017,1 hPa 0,0 l/m 0 min 0 min 5 W/m 16,7 km/h (3 Bft) 95,74 %
27.01.2017 17:24 2,8 C 2,8 C 0,6 C 73 % 0 lf 1017,0 hPa 0,0 l/m 0 min 0 min 1 W/m 20,9 km/h (4 Bft) 95,74 %
27.01.2017 17:26 2,7 C 2,8 C 0,6 C 73 % 0 lf 1017,0 hPa 0,0 l/m 0 min 0 min 0 W/m 18,8 km/h (3 Bft) 95,74 %
27.01.2017 17:28 2,7 C 2,8 C 0,6 C 73 % 0 lf 1017,0 hPa 0,0 l/m 0 min 0 min 0 W/m 23,0 km/h (4 Bft) 95,74 %
27.01.2017 17:30 2,7 C 2,8 C 0,6 C 73 % 0 lf 1017,0 hPa 0,0 l/m 0 min 0 min 0 W/m 16,7 km/h (3 Bft) 97,87 %
27.01.2017 17:32 2,7 C 2,8 C 0,6 C 73 % 0 lf 1016,9 hPa 0,0 l/m 0 min 0 min 0 W/m 12,6 km/h (3 Bft) 93,48 %
27.01.2017 17:34 2,7 C 2,8 C 0,6 C 73 % 0 lf 1017,0 hPa 0,0 l/m 0 min 0 min 0 W/m 18,8 km/h (3 Bft) 95,74 %
27.01.2017 17:36 2,6 C 2,8 C 0,6 C 73 % 0 lf 1017,0 hPa 0,0 l/m 0 min 0 min 0 W/m 20,9 km/h (4 Bft) 95,74 %
27.01.2017 17:38 2,6 C 2,8 C 0,6 C 73 % 0 lf 1017,0 hPa 0,0 l/m 0 min 0 min 0 W/m 14,6 km/h (3 Bft) 97,87 %
27.01.2017 17:40 2,6 C 2,8 C 0,6 C 73 % 0 lf 1017,0 hPa 0,0 l/m 0 min 0 min 0 W/m 27,2 km/h (4 Bft) 95,74 %
27.01.2017 17:42 2,6 C 2,8 C 0,6 C 73 % 0 lf 1017,1 hPa 0,0 l/m 0 min 0 min 0 W/m 18,8 km/h (3 Bft) 97,87 %
27.01.2017 17:44 2,6 C 2,8 C 0,6 C 73 % 0 lf 1017,1 hPa 0,0 l/m 0 min 0 min 0 W/m 18,8 km/h (3 Bft) 95,65 %
27.01.2017 17:46 2,6 C 2,8 C 0,6 C 73 % 0 lf 1017,0 hPa 0,0 l/m 0 min 0 min 0 W/m 16,7 km/h (3 Bft) 93,62 %
27.01.2017 17:48 2,6 C 2,8 C 0,0 C 73 % 0 lf 1017,1 hPa 0,0 l/m 0 min 0 min 0 W/m 16,7 km/h (3 Bft) 95,74 %
27.01.2017 17:50 2,6 C 2,8 C 0,0 C 73 % 0 lf 1017,1 hPa 0,0 l/m 0 min 0 min 0 W/m 25,1 km/h (4 Bft) 97,87 %
27.01.2017 17:52 2,5 C 2,8 C 0,6 C 73 % 0 lf 1017,1 hPa 0,0 l/m 0 min 0 min 0 W/m 18,8 km/h (3 Bft) 97,87 %
27.01.2017 17:54 2,5 C 2,8 C 0,6 C 73 % 0 lf 1017,1 hPa 0,0 l/m 0 min 0 min 0 W/m 16,7 km/h (3 Bft) 95,74 %
27.01.2017 17:56 2,5 C 2,8 C 0,6 C 73 % 0 lf 1017,2 hPa 0,0 l/m 0 min 0 min 0 W/m 20,9 km/h (4 Bft) 91,30 %
27.01.2017 17:58 2,5 C 2,8 C 0,0 C 73 % 0 lf 1017,2 hPa 0,0 l/m 0 min 0 min 0 W/m 20,9 km/h (4 Bft) 95,74 %
27.01.2017 18:00 2,5 C 2,8 C 0,0 C 73 % 0 lf 1017,2 hPa 0,0 l/m 0 min 0 min 0 W/m 18,8 km/h (3 Bft) 93,62 %
27.01.2017 18:02 2,4 C 2,8 C 0,0 C 74 % 0 lf 1017,2 hPa 0,0 l/m 0 min 0 min 0 W/m 23,0 km/h (4 Bft) 95,74 %
27.01.2017 18:04 2,4 C 2,8 C 0,0 C 74 % 0 lf 1017,3 hPa 0,0 l/m 0 min 0 min 0 W/m 20,9 km/h (4 Bft) 95,74 %
27.01.2017 18:06 2,4 C 2,8 C 0,0 C 74 % 0 lf 1017,2 hPa 0,0 l/m 0 min 0 min 0 W/m 23,0 km/h (4 Bft) 97,87 %
27.01.2017 18:08 2,4 C 2,8 C 0,0 C 74 % 0 lf 1017,2 hPa 0,0 l/m 0 min 0 min 0 W/m 25,1 km/h (4 Bft) 95,65 %
27.01.2017 18:10 2,4 C 2,8 C 0,0 C 74 % 0 lf 1017,3 hPa 0,0 l/m 0 min 0 min 0 W/m 16,7 km/h (3 Bft) 93,62 %
27.01.2017 18:12 2,4 C 2,8 C 0,0 C 74 % 0 lf 1017,3 hPa 0,0 l/m 0 min 0 min 0 W/m 16,7 km/h (3 Bft) 93,62 %
27.01.2017 18:14 2,4 C 2,8 C 0,6 C 74 % 0 lf 1017,3 hPa 0,0 l/m 0 min 0 min 0 W/m 23,0 km/h (4 Bft) 95,74 %
27.01.2017 18:16 2,4 C 2,8 C 0,6 C 74 % 0 lf 1017,2 hPa 0,0 l/m 0 min 0 min 0 W/m 18,8 km/h (3 Bft) 95,74 %
27.01.2017 18:18 2,4 C 2,8 C 0,6 C 74 % 0 lf 1017,2 hPa 0,0 l/m 0 min 0 min 0 W/m 20,9 km/h (4 Bft) 95,74 %
27.01.2017 18:20 2,4 C 2,8 C 0,6 C 74 % 0 lf 1017,3 hPa 0,0 l/m 0 min 0 min 0 W/m 25,1 km/h (4 Bft) 93,48 %
27.01.2017 18:22 2,4 C 2,8 C 0,6 C 74 % 0 lf 1017,3 hPa 0,0 l/m 0 min 0 min 0 W/m 25,1 km/h (4 Bft) 91,49 %
27.01.2017 18:24 2,4 C 2,8 C 0,6 C 74 % 0 lf 1017,3 hPa 0,0 l/m 0 min 0 min 0 W/m 20,9 km/h (4 Bft) 91,49 %
27.01.2017 18:26 2,4 C 2,8 C 0,6 C 74 % 0 lf 1017,4 hPa 0,0 l/m 0 min 0 min 0 W/m 29,3 km/h (5 Bft) 95,74 %
27.01.2017 18:28 2,4 C 2,8 C 0,6 C 74 % 0 lf 1017,4 hPa 0,0 l/m 0 min 0 min 0 W/m 23,0 km/h (4 Bft) 95,74 %
27.01.2017 18:30 2,4 C 2,8 C 0,6 C 74 % 0 lf 1017,4 hPa 0,0 l/m 0 min 0 min 0 W/m 18,8 km/h (3 Bft) 95,65 %
27.01.2017 18:32 2,4 C 2,8 C 0,6 C 74 % 0 lf 1017,4 hPa 0,0 l/m 0 min 0 min 0 W/m 23,0 km/h (4 Bft) 95,74 %
27.01.2017 18:34 2,4 C 2,8 C 0,6 C 74 % 0 lf 1017,4 hPa 0,0 l/m 0 min 0 min 0 W/m 18,8 km/h (3 Bft) 95,74 %
27.01.2017 18:36 2,4 C 2,8 C 0,6 C 74 % 0 lf 1017,5 hPa 0,0 l/m 0 min 0 min 0 W/m 20,9 km/h (4 Bft) 95,74 %
27.01.2017 18:38 2,4 C 2,8 C 0,6 C 74 % 0 lf 1017,4 hPa 0,0 l/m 0 min 0 min 0 W/m 16,7 km/h (3 Bft) 93,62 %
27.01.2017 18:40 2,4 C 2,8 C 0,6 C 74 % 0 lf 1017,4 hPa 0,0 l/m 0 min 0 min 0 W/m 23,0 km/h (4 Bft) 95,74 %
27.01.2017 18:42 2,4 C 2,8 C 0,0 C 74 % 0 lf 1017,5 hPa 0,0 l/m 0 min 0 min 0 W/m 20,9 km/h (4 Bft) 95,65 %
27.01.2017 18:44 2,4 C 2,8 C 0,0 C 74 % 0 lf 1017,5 hPa 0,0 l/m 0 min 0 min 0 W/m 18,8 km/h (3 Bft) 91,49 %
27.01.2017 18:46 2,4 C 2,8 C 0,0 C 74 % 0 lf 1017,5 hPa 0,0 l/m 0 min 0 min 0 W/m 20,9 km/h (4 Bft) 93,62 %
27.01.2017 18:48 2,4 C 2,8 C 0,0 C 74 % 0 lf 1017,5 hPa 0,0 l/m 0 min 0 min 0 W/m 16,7 km/h (3 Bft) 95,74 %
27.01.2017 18:50 2,4 C 2,8 C 0,0 C 74 % 0 lf 1017,5 hPa 0,0 l/m 0 min 0 min 0 W/m 20,9 km/h (4 Bft) 95,74 %
27.01.2017 18:52 2,3 C 2,8 C 0,0 C 74 % 0 lf 1017,5 hPa 0,0 l/m 0 min 0 min 0 W/m 18,8 km/h (3 Bft) 95,74 %
27.01.2017 18:54 2,3 C 2,8 C 0,0 C 74 % 0 lf 1017,6 hPa 0,0 l/m 0 min 0 min 0 W/m 23,0 km/h (4 Bft) 100,00 %
27.01.2017 18:56 2,3 C 2,8 C 0,0 C 74 % 0 lf 1017,5 hPa 0,0 l/m 0 min 0 min 0 W/m 16,7 km/h (3 Bft) 95,74 %
27.01.2017 18:58 2,3 C 2,2 C 0,0 C 74 % 0 lf 1017,6 hPa 0,0 l/m 0 min 0 min 0 W/m 23,0 km/h (4 Bft) 100,00 %
27.01.2017 19:00 2,3 C 2,8 C 0,0 C 74 % 0 lf 1017,6 hPa 0,0 l/m 0 min 0 min 0 W/m 16,7 km/h (3 Bft) 100,00 %
27.01.2017 19:02 2,3 C 2,2 C 0,0 C 74 % 0 lf 1017,6 hPa 0,0 l/m 0 min 0 min 0 W/m 18,8 km/h (3 Bft) 100,00 %
27.01.2017 19:04 2,3 C 2,2 C 0,0 C 74 % 0 lf 1017,5 hPa 0,0 l/m 0 min 0 min 0 W/m 16,7 km/h (3 Bft) 100,00 %
27.01.2017 19:06 2,3 C 2,2 C 0,0 C 74 % 0 lf 1017,6 hPa 0,0 l/m 0 min 0 min 0 W/m 20,9 km/h (4 Bft) 95,65 %
27.01.2017 19:08 2,3 C 2,8 C 0,0 C 74 % 0 lf 1017,6 hPa 0,0 l/m 0 min 0 min 0 W/m 23,0 km/h (4 Bft) 97,87 %
27.01.2017 19:10 2,3 C 2,8 C 0,0 C 74 % 0 lf 1017,6 hPa 0,0 l/m 0 min 0 min 0 W/m 18,8 km/h (3 Bft) 95,74 %
27.01.2017 19:12 2,2 C 2,8 C 0,0 C 74 % 0 lf 1017,6 hPa 0,0 l/m 0 min 0 min 0 W/m 14,6 km/h (3 Bft) 97,87 %
27.01.2017 19:14 2,2 C 2,2 C 0,0 C 74 % 0 lf 1017,6 hPa 0,0 l/m 0 min 0 min 0 W/m 20,9 km/h (4 Bft) 97,87 %
27.01.2017 19:16 2,2 C 2,2 C 0,0 C 74 % 0 lf 1017,6 hPa 0,0 l/m 0 min 0 min 0 W/m 16,7 km/h (3 Bft) 93,62 %
27.01.2017 19:18 2,2 C 2,2 C 0,0 C 74 % 0 lf 1017,6 hPa 0,0 l/m 0 min 0 min 0 W/m 18,8 km/h (3 Bft) 97,83 %
27.01.2017 19:20 2,2 C 2,2 C 0,0 C 74 % 0 lf 1017,6 hPa 0,0 l/m 0 min 0 min 0 W/m 20,9 km/h (4 Bft) 95,74 %
27.01.2017 19:22 2,2 C 2,2 C 0,0 C 74 % 0 lf 1017,6 hPa 0,0 l/m 0 min 0 min 0 W/m 16,7 km/h (3 Bft) 97,87 %
27.01.2017 19:24 2,2 C 2,2 C 0,0 C 74 % 0 lf 1017,6 hPa 0,0 l/m 0 min 0 min 0 W/m 20,9 km/h (4 Bft) 91,49 %
27.01.2017 19:26 2,2 C 2,2 C 0,0 C 74 % 0 lf 1017,6 hPa 0,0 l/m 0 min 0 min 0 W/m 14,6 km/h (3 Bft) 97,87 %
27.01.2017 19:28 2,2 C 2,2 C 0,0 C 74 % 0 lf 1017,6 hPa 0,0 l/m 0 min 0 min 0 W/m 16,7 km/h (3 Bft) 97,83 %
27.01.2017 19:30 2,2 C 2,2 C 0,0 C 74 % 0 lf 1017,6 hPa 0,0 l/m 0 min 0 min 0 W/m 18,8 km/h (3 Bft) 97,87 %
27.01.2017 19:32 2,1 C 2,2 C 0,0 C 74 % 0 lf 1017,6 hPa 0,0 l/m 0 min 0 min 0 W/m 16,7 km/h (3 Bft) 93,62 %
27.01.2017 19:34 2,1 C 2,2 C 0,0 C 74 % 0 lf 1017,6 hPa 0,0 l/m 0 min 0 min 0 W/m 16,7 km/h (3 Bft) 97,87 %
27.01.2017 19:36 2,1 C 2,2 C 0,0 C 74 % 0 lf 1017,7 hPa 0,0 l/m 0 min 0 min 0 W/m 20,9 km/h (4 Bft) 93,62 %
27.01.2017 19:38 2,1 C 2,2 C 0,0 C 74 % 0 lf 1017,6 hPa 0,0 l/m 0 min 0 min 0 W/m 18,8 km/h (3 Bft) 93,62 %
27.01.2017 19:40 2,1 C 2,2 C 0,0 C 74 % 0 lf 1017,7 hPa 0,0 l/m 0 min 0 min 0 W/m 18,8 km/h (3 Bft) 97,83 %
27.01.2017 19:42 2,1 C 2,2 C 0,0 C 74 % 0 lf 1017,6 hPa 0,0 l/m 0 min 0 min 0 W/m 20,9 km/h (4 Bft) 95,74 %
27.01.2017 19:44 2,1 C 2,2 C 0,0 C 74 % 0 lf 1017,6 hPa 0,0 l/m 0 min 0 min 0 W/m 16,7 km/h (3 Bft) 95,74 %
27.01.2017 19:46 2,0 C 2,2 C 0,0 C 74 % 0 lf 1017,7 hPa 0,0 l/m 0 min 0 min 0 W/m 20,9 km/h (4 Bft) 93,62 %
27.01.2017 19:48 2,0 C 2,2 C 0,0 C 74 % 0 lf 1017,6 hPa 0,0 l/m 0 min 0 min 0 W/m 20,9 km/h (4 Bft) 95,74 %
27.01.2017 19:50 2,0 C 2,2 C 0,0 C 74 % 0 lf 1017,6 hPa 0,0 l/m 0 min 0 min 0 W/m 18,8 km/h (3 Bft) 95,74 %
27.01.2017 19:52 2,0 C 2,2 C 0,0 C 74 % 0 lf 1017,6 hPa 0,0 l/m 0 min 0 min 0 W/m 16,7 km/h (3 Bft) 97,83 %
27.01.2017 19:54 2,0 C 2,2 C 0,0 C 74 % 0 lf 1017,6 hPa 0,0 l/m 0 min 0 min 0 W/m 16,7 km/h (3 Bft) 100,00 %
27.01.2017 19:56 2,0 C 2,2 C 0,0 C 74 % 0 lf 1017,6 hPa 0,0 l/m 0 min 0 min 0 W/m 23,0 km/h (4 Bft) 100,00 %
27.01.2017 19:58 2,0 C 2,2 C 0,0 C 74 % 0 lf 1017,6 hPa 0,0 l/m 0 min 0 min 0 W/m 16,7 km/h (3 Bft) 100,00 %
27.01.2017 20:00 2,0 C 2,2 C 0,0 C 74 % 0 lf 1017,6 hPa 0,0 l/m 0 min 0 min 0 W/m 14,6 km/h (3 Bft) 97,87 %
27.01.2017 20:02 2,0 C 2,2 C 0,0 C 74 % 0 lf 1017,7 hPa 0,0 l/m 0 min 0 min 0 W/m 16,7 km/h (3 Bft) 95,74 %
27.01.2017 20:04 2,0 C 2,2 C 0,0 C 74 % 0 lf 1017,7 hPa 0,0 l/m 0 min 0 min 0 W/m 14,6 km/h (3 Bft) 100,00 %
27.01.2017 20:06 2,0 C 2,2 C 0,0 C 74 % 0 lf 1017,7 hPa 0,0 l/m 0 min 0 min 0 W/m 16,7 km/h (3 Bft) 97,87 %
27.01.2017 20:08 2,0 C 2,2 C 0,0 C 74 % 0 lf 1017,7 hPa 0,0 l/m 0 min 0 min 0 W/m 20,9 km/h (4 Bft) 89,36 %
27.01.2017 20:10 2,0 C 2,2 C 0,0 C 74 % 0 lf 1017,7 hPa 0,0 l/m 0 min 0 min 0 W/m 16,7 km/h (3 Bft) 100,00 %
27.01.2017 20:12 2,0 C 2,2 C 0,0 C 74 % 0 lf 1017,7 hPa 0,0 l/m 0 min 0 min 0 W/m 18,8 km/h (3 Bft) 100,00 %
27.01.2017 20:14 2,0 C 2,2 C 0,0 C 74 % 0 lf 1017,6 hPa 0,0 l/m 0 min 0 min 0 W/m 23,0 km/h (4 Bft) 97,87 %
27.01.2017 20:16 2,0 C 2,2 C 0,0 C 74 % 0 lf 1017,7 hPa 0,0 l/m 0 min 0 min 0 W/m 16,7 km/h (3 Bft) 95,65 %
27.01.2017 20:18 2,0 C 2,2 C 0,0 C 74 % 0 lf 1017,7 hPa 0,0 l/m 0 min 0 min 0 W/m 18,8 km/h (3 Bft) 95,74 %
27.01.2017 20:20 2,0 C 2,2 C 0,0 C 73 % 0 lf 1017,7 hPa 0,0 l/m 0 min 0 min 0 W/m 16,7 km/h (3 Bft) 95,74 %
27.01.2017 20:22 2,0 C 2,8 C 0,0 C 73 % 0 lf 1017,7 hPa 0,0 l/m 0 min 0 min 0 W/m 12,6 km/h (3 Bft) 97,87 %
27.01.2017 20:24 2,1 C 2,8 C 0,0 C 73 % 0 lf 1017,7 hPa 0,0 l/m 0 min 0 min 0 W/m 14,6 km/h (3 Bft) 93,62 %
27.01.2017 20:26 2,1 C 2,8 C 0,0 C 73 % 0 lf 1017,6 hPa 0,0 l/m 0 min 0 min 0 W/m 16,7 km/h (3 Bft) 95,74 %
27.01.2017 20:28 2,1 C 2,8 C 0,0 C 73 % 0 lf 1017,6 hPa 0,0 l/m 0 min 0 min 0 W/m 20,9 km/h (4 Bft) 97,83 %
27.01.2017 20:30 2,1 C 2,8 C 0,0 C 73 % 0 lf 1017,7 hPa 0,0 l/m 0 min 0 min 0 W/m 20,9 km/h (4 Bft) 95,74 %
27.01.2017 20:32 2,1 C 2,8 C 0,0 C 73 % 0 lf 1017,6 hPa 0,0 l/m 0 min 0 min 0 W/m 16,7 km/h (3 Bft) 91,49 %
27.01.2017 20:34 2,1 C 2,8 C 0,0 C 73 % 0 lf 1017,6 hPa 0,0 l/m 0 min 0 min 0 W/m 20,9 km/h (4 Bft) 95,74 %
27.01.2017 20:36 2,1 C 2,8 C 0,0 C 73 % 0 lf 1017,6 hPa 0,0 l/m 0 min 0 min 0 W/m 20,9 km/h (4 Bft) 97,87 %
27.01.2017 20:38 2,1 C 2,8 C 0,0 C 73 % 0 lf 1017,6 hPa 0,0 l/m 0 min 0 min 0 W/m 16,7 km/h (3 Bft) 95,65 %
27.01.2017 20:40 2,2 C 2,8 C 0,0 C 73 % 0 lf 1017,6 hPa 0,0 l/m 0 min 0 min 0 W/m 20,9 km/h (4 Bft) 93,62 %
27.01.2017 20:42 2,2 C 2,8 C 0,0 C 73 % 0 lf 1017,6 hPa 0,0 l/m 0 min 0 min 0 W/m 18,8 km/h (3 Bft) 97,87 %
27.01.2017 20:44 2,2 C 2,2 C 0,0 C 72 % 0 lf 1017,6 hPa 0,0 l/m 0 min 0 min 0 W/m 20,9 km/h (4 Bft) 95,74 %
27.01.2017 20:46 2,2 C 2,8 C 0,0 C 72 % 0 lf 1017,6 hPa 0,0 l/m 0 min 0 min 0 W/m 18,8 km/h (3 Bft) 95,74 %
27.01.2017 20:48 2,2 C 2,8 C 0,0 C 72 % 0 lf 1017,6 hPa 0,0 l/m 0 min 0 min 0 W/m 18,8 km/h (3 Bft) 95,74 %
27.01.2017 20:50 2,2 C 2,8 C 0,0 C 72 % 0 lf 1017,6 hPa 0,0 l/m 0 min 0 min 0 W/m 23,0 km/h (4 Bft) 100,00 %
27.01.2017 20:52 2,2 C 2,8 C 0,0 C 72 % 0 lf 1017,6 hPa 0,0 l/m 0 min 0 min 0 W/m 29,3 km/h (5 Bft) 100,00 %
27.01.2017 20:54 2,2 C 2,8 C 0,0 C 72 % 0 lf 1017,6 hPa 0,0 l/m 0 min 0 min 0 W/m 18,8 km/h (3 Bft) 97,87 %
27.01.2017 20:56 2,2 C 2,8 C 0,0 C 72 % 0 lf 1017,7 hPa 0,0 l/m 0 min 0 min 0 W/m 25,1 km/h (4 Bft) 95,74 %
27.01.2017 20:58 2,2 C 2,8 C 0,0 C 72 % 0 lf 1017,6 hPa 0,0 l/m 0 min 0 min 0 W/m 25,1 km/h (4 Bft) 97,87 %
27.01.2017 21:00 2,2 C 2,8 C 0,0 C 72 % 0 lf 1017,6 hPa 0,0 l/m 0 min 0 min 0 W/m 20,9 km/h (4 Bft) 93,62 %
27.01.2017 21:02 2,2 C 2,8 C 0,0 C 72 % 0 lf 1017,6 hPa 0,0 l/m 0 min 0 min 0 W/m 25,1 km/h (4 Bft) 97,83 %
27.01.2017 21:04 2,2 C 2,8 C 0,0 C 72 % 0 lf 1017,6 hPa 0,0 l/m 0 min 0 min 0 W/m 20,9 km/h (4 Bft) 93,62 %
27.01.2017 21:06 2,2 C 2,8 C 0,0 C 72 % 0 lf 1017,7 hPa 0,0 l/m 0 min 0 min 0 W/m 29,3 km/h (5 Bft) 93,62 %
27.01.2017 21:08 2,2 C 2,8 C 0,0 C 72 % 0 lf 1017,7 hPa 0,0 l/m 0 min 0 min 0 W/m 23,0 km/h (4 Bft) 95,74 %
27.01.2017 21:10 2,2 C 2,2 C 0,0 C 72 % 0 lf 1017,7 hPa 0,0 l/m 0 min 0 min 0 W/m 20,9 km/h (4 Bft) 91,49 %
27.01.2017 21:12 2,2 C 2,2 C 0,0 C 72 % 0 lf 1017,6 hPa 0,0 l/m 0 min 0 min 0 W/m 20,9 km/h (4 Bft) 93,62 %
27.01.2017 21:14 2,2 C 2,2 C 0,0 C 72 % 0 lf 1017,7 hPa 0,0 l/m 0 min 0 min 0 W/m 25,1 km/h (4 Bft) 93,48 %
27.01.2017 21:16 2,2 C 2,2 C 0,0 C 72 % 0 lf 1017,7 hPa 0,0 l/m 0 min 0 min 0 W/m 23,0 km/h (4 Bft) 95,74 %
27.01.2017 21:18 2,2 C 2,2 C 0,0 C 72 % 0 lf 1017,6 hPa 0,0 l/m 0 min 0 min 0 W/m 27,2 km/h (4 Bft) 93,62 %
27.01.2017 21:20 2,2 C 2,2 C 0,0 C 72 % 0 lf 1017,7 hPa 0,0 l/m 0 min 0 min 0 W/m 20,9 km/h (4 Bft) 95,74 %
27.01.2017 21:22 2,2 C 2,2 C 0,0 C 72 % 0 lf 1017,7 hPa 0,0 l/m 0 min 0 min 0 W/m 27,2 km/h (4 Bft) 93,62 %
27.01.2017 21:24 2,2 C 2,2 C 0,0 C 72 % 0 lf 1017,7 hPa 0,0 l/m 0 min 0 min 0 W/m 25,1 km/h (4 Bft) 93,48 %
27.01.2017 21:26 2,2 C 2,2 C 0,0 C 72 % 0 lf 1017,7 hPa 0,0 l/m 0 min 0 min 0 W/m 20,9 km/h (4 Bft) 95,74 %
27.01.2017 21:28 2,2 C 2,2 C 0,0 C 72 % 0 lf 1017,7 hPa 0,0 l/m 0 min 0 min 0 W/m 25,1 km/h (4 Bft) 95,74 %
27.01.2017 21:30 2,2 C 2,2 C 0,0 C 72 % 0 lf 1017,7 hPa 0,0 l/m 0 min 0 min 0 W/m 27,2 km/h (4 Bft) 89,36 %
27.01.2017 21:32 2,1 C 2,2 C 0,0 C 72 % 0 lf 1017,7 hPa 0,0 l/m 0 min 0 min 0 W/m 25,1 km/h (4 Bft) 93,62 %
27.01.2017 21:34 2,1 C 2,2 C 0,0 C 72 % 0 lf 1017,7 hPa 0,0 l/m 0 min 0 min 0 W/m 25,1 km/h (4 Bft) 91,49 %
27.01.2017 21:36 2,1 C 2,2 C 0,0 C 72 % 0 lf 1017,7 hPa 0,0 l/m 0 min 0 min 0 W/m 20,9 km/h (4 Bft) 91,30 %
27.01.2017 21:38 2,1 C 2,2 C 0,0 C 72 % 0 lf 1017,7 hPa 0,0 l/m 0 min 0 min 0 W/m 27,2 km/h (4 Bft) 93,62 %
27.01.2017 21:40 2,1 C 2,2 C 0,0 C 72 % 0 lf 1017,7 hPa 0,0 l/m 0 min 0 min 0 W/m 20,9 km/h (4 Bft) 93,62 %
27.01.2017 21:42 2,1 C 2,2 C 0,0 C 73 % 0 lf 1017,7 hPa 0,0 l/m 0 min 0 min 0 W/m 27,2 km/h (4 Bft) 93,62 %
27.01.2017 21:44 2,1 C 2,2 C 0,0 C 73 % 0 lf 1017,7 hPa 0,0 l/m 0 min 0 min 0 W/m 18,8 km/h (3 Bft) 89,36 %
27.01.2017 21:46 2,1 C 2,2 C 0,0 C 73 % 0 lf 1017,7 hPa 0,0 l/m 0 min 0 min 0 W/m 25,1 km/h (4 Bft) 87,23 %
27.01.2017 21:48 2,1 C 2,2 C 0,0 C 73 % 0 lf 1017,7 hPa 0,0 l/m 0 min 0 min 0 W/m 27,2 km/h (4 Bft) 91,49 %
27.01.2017 21:50 2,0 C 2,2 C 0,0 C 73 % 0 lf 1017,6 hPa 0,0 l/m 0 min 0 min 0 W/m 25,1 km/h (4 Bft) 93,48 %
27.01.2017 21:52 2,0 C 2,2 C -0,6 C 73 % 0 lf 1017,6 hPa 0,0 l/m 0 min 0 min 0 W/m 20,9 km/h (4 Bft) 93,62 %
27.01.2017 21:54 2,0 C 2,2 C 0,0 C 73 % 0 lf 1017,6 hPa 0,0 l/m 0 min 0 min 0 W/m 18,8 km/h (3 Bft) 93,62 %
27.01.2017 21:56 2,0 C 2,2 C -0,6 C 73 % 0 lf 1017,6 hPa 0,0 l/m 0 min 0 min 0 W/m 20,9 km/h (4 Bft) 95,74 %
27.01.2017 21:58 1,9 C 2,2 C 0,0 C 73 % 0 lf 1017,6 hPa 0,0 l/m 0 min 0 min 0 W/m 25,1 km/h (4 Bft) 91,49 %
27.01.2017 22:00 1,9 C 2,2 C -0,6 C 73 % 0 lf 1017,6 hPa 0,0 l/m 0 min 0 min 0 W/m 20,9 km/h (4 Bft) 91,30 %
27.01.2017 22:02 1,9 C 2,2 C -0,6 C 73 % 0 lf 1017,6 hPa 0,0 l/m 0 min 0 min 0 W/m 23,0 km/h (4 Bft) 87,23 %
27.01.2017 22:04 1,9 C 1,7 C -0,6 C 73 % 0 lf 1017,6 hPa 0,0 l/m 0 min 0 min 0 W/m 18,8 km/h (3 Bft) 93,62 %
27.01.2017 22:06 1,9 C 2,2 C -0,6 C 73 % 0 lf 1017,6 hPa 0,0 l/m 0 min 0 min 0 W/m 20,9 km/h (4 Bft) 95,74 %
27.01.2017 22:08 1,9 C 2,2 C -0,6 C 73 % 0 lf 1017,6 hPa 0,0 l/m 0 min 0 min 0 W/m 18,8 km/h (3 Bft) 93,62 %
27.01.2017 22:09 1,9 C 2,2 C -0,6 C 73 % 0 lf 1017,6 hPa 0,0 l/m 0 min 0 min 0 W/m 23,0 km/h (4 Bft) 100,00 %
27.01.2017 22:10 1,8 C 2,2 C -0,6 C 73 % 0 lf 1017,6 hPa 0,0 l/m 0 min 0 min 0 W/m 14,6 km/h (3 Bft) 91,30 %
27.01.2017 22:12 1,8 C 1,7 C -0,6 C 73 % 0 lf 1017,6 hPa 0,0 l/m 0 min 0 min 0 W/m 20,9 km/h (4 Bft) 92,31 %
27.01.2017 22:14 1,8 C 1,7 C -0,6 C 73 % 0 lf 1017,6 hPa 0,0 l/m 0 min 0 min 0 W/m 20,9 km/h (4 Bft) 95,74 %
27.01.2017 22:16 1,8 C 1,7 C -0,6 C 73 % 0 lf 1017,6 hPa 0,0 l/m 0 min 0 min 0 W/m 20,9 km/h (4 Bft) 91,49 %
27.01.2017 22:18 1,7 C 1,7 C -0,6 C 74 % 0 lf 1017,6 hPa 0,0 l/m 0 min 0 min 0 W/m 23,0 km/h (4 Bft) 91,43 %
27.01.2017 22:20 1,7 C 1,7 C -0,6 C 73 % 0 lf 1017,6 hPa 0,0 l/m 0 min 0 min 0 W/m 27,2 km/h (4 Bft) 94,83 %
27.01.2017 22:22 1,7 C 1,7 C -0,6 C 74 % 0 lf 1017,6 hPa 0,0 l/m 0 min 0 min 0 W/m 23,0 km/h (4 Bft) 95,74 %
27.01.2017 22:24 1,7 C 1,7 C -0,6 C 74 % 0 lf 1017,6 hPa 0,0 l/m 0 min 0 min 0 W/m 25,1 km/h (4 Bft) 95,74 %
27.01.2017 22:26 1,7 C 1,7 C -0,6 C 74 % 0 lf 1017,6 hPa 0,0 l/m 0 min 0 min 0 W/m 25,1 km/h (4 Bft) 97,62 %
27.01.2017 22:28 1,6 C 1,7 C -0,6 C 74 % 0 lf 1017,6 hPa 0,0 l/m 0 min 0 min 0 W/m 25,1 km/h (4 Bft) 97,96 %
27.01.2017 22:30 1,6 C 1,7 C -0,6 C 74 % 0 lf 1017,6 hPa 0,0 l/m 0 min 0 min 0 W/m 23,0 km/h (4 Bft) 95,92 %
27.01.2017 22:32 1,6 C 1,7 C -0,6 C 74 % 0 lf 1017,6 hPa 0,0 l/m 0 min 0 min 0 W/m 27,2 km/h (4 Bft) 97,87 %
27.01.2017 22:34 1,6 C 1,7 C -0,6 C 74 % 0 lf 1017,6 hPa 0,0 l/m 0 min 0 min 0 W/m 25,1 km/h (4 Bft) 95,24 %
27.01.2017 22:36 1,6 C 1,7 C -0,6 C 74 % 0 lf 1017,6 hPa 0,0 l/m 0 min 0 min 0 W/m 23,0 km/h (4 Bft) 94,00 %
27.01.2017 22:38 1,6 C 1,7 C -0,6 C 74 % 0 lf 1017,6 hPa 0,0 l/m 0 min 0 min 0 W/m 25,1 km/h (4 Bft) 93,88 %
27.01.2017 22:40 1,6 C 1,7 C -0,6 C 74 % 0 lf 1017,5 hPa 0,0 l/m 0 min 0 min 0 W/m 33,5 km/h (5 Bft) 93,62 %
27.01.2017 22:42 1,6 C 2,2 C -0,6 C 73 % 0 lf 1017,5 hPa 0,0 l/m 0 min 0 min 0 W/m 25,1 km/h (4 Bft) 97,56 %
27.01.2017 22:44 1,6 C 1,7 C -0,6 C 73 % 0 lf 1017,5 hPa 0,0 l/m 0 min 0 min 0 W/m 31,4 km/h (5 Bft) 100,00 %
27.01.2017 22:46 1,6 C 2,2 C -0,6 C 73 % 0 lf 1017,6 hPa 0,0 l/m 0 min 0 min 0 W/m 29,3 km/h (5 Bft) 97,96 %
27.01.2017 22:48 1,6 C 2,2 C -0,6 C 73 % 0 lf 1017,6 hPa 0,0 l/m 0 min 0 min 0 W/m 27,2 km/h (4 Bft) 100,00 %
27.01.2017 22:50 1,6 C 2,2 C -0,6 C 73 % 0 lf 1017,6 hPa 0,0 l/m 0 min 0 min 0 W/m 27,2 km/h (4 Bft) 92,86 %
27.01.2017 22:52 1,6 C 2,2 C -0,6 C 73 % 0 lf 1017,6 hPa 0,0 l/m 0 min 0 min 0 W/m 25,1 km/h (4 Bft) 95,65 %
27.01.2017 22:54 1,6 C 2,2 C -0,6 C 73 % 0 lf 1017,7 hPa 0,0 l/m 0 min 0 min 0 W/m 20,9 km/h (4 Bft) 98,00 %
27.01.2017 22:56 1,7 C 2,2 C -0,6 C 73 % 0 lf 1017,7 hPa 0,0 l/m 0 min 0 min 0 W/m 20,9 km/h (4 Bft) 97,96 %
27.01.2017 22:58 1,7 C 2,2 C -0,6 C 73 % 0 lf 1017,7 hPa 0,0 l/m 0 min 0 min 0 W/m 27,2 km/h (4 Bft) 100,00 %
27.01.2017 23:00 1,7 C 1,7 C -0,6 C 73 % 0 lf 1017,6 hPa 0,0 l/m 0 min 0 min 0 W/m 20,9 km/h (4 Bft) 100,00 %
27.01.2017 23:02 1,7 C 1,7 C -0,6 C 73 % 0 lf 1017,7 hPa 0,0 l/m 0 min 0 min 0 W/m 23,0 km/h (4 Bft) 100,00 %
27.01.2017 23:04 1,7 C 1,7 C -0,6 C 73 % 0 lf 1017,7 hPa 0,0 l/m 0 min 0 min 0 W/m 16,7 km/h (3 Bft) 100,00 %
27.01.2017 23:06 1,6 C 1,7 C -0,6 C 73 % 0 lf 1017,6 hPa 0,0 l/m 0 min 0 min 0 W/m 27,2 km/h (4 Bft) 97,83 %
27.01.2017 23:08 1,6 C 1,7 C -0,6 C 73 % 0 lf 1017,7 hPa 0,0 l/m 0 min 0 min 0 W/m 20,9 km/h (4 Bft) 97,62 %
27.01.2017 23:10 1,6 C 1,7 C -0,6 C 73 % 0 lf 1017,6 hPa 0,0 l/m 0 min 0 min 0 W/m 20,9 km/h (4 Bft) 96,00 %
27.01.2017 23:12 1,6 C 1,7 C -0,6 C 73 % 0 lf 1017,7 hPa 0,0 l/m 0 min 0 min 0 W/m 25,1 km/h (4 Bft) 97,96 %
27.01.2017 23:14 1,6 C 1,7 C -0,6 C 73 % 0 lf 1017,7 hPa 0,0 l/m 0 min 0 min 0 W/m 14,6 km/h (3 Bft) 100,00 %
27.01.2017 23:16 1,6 C 1,7 C -0,6 C 73 % 0 lf 1017,7 hPa 0,0 l/m 0 min 0 min 0 W/m 12,6 km/h (3 Bft) 97,56 %
27.01.2017 23:18 1,6 C 1,7 C -1,1 C 73 % 0 lf 1017,7 hPa 0,0 l/m 0 min 0 min 0 W/m 16,7 km/h (3 Bft) 98,00 %
27.01.2017 23:20 1,6 C 1,7 C -1,1 C 73 % 0 lf 1017,7 hPa 0,0 l/m 0 min 0 min 0 W/m 16,7 km/h (3 Bft) 95,92 %
27.01.2017 23:22 1,5 C 1,7 C -1,1 C 73 % 0 lf 1017,7 hPa 0,0 l/m 0 min 0 min 0 W/m 20,9 km/h (4 Bft) 100,00 %
27.01.2017 23:24 1,5 C 1,1 C -1,1 C 73 % 0 lf 1017,7 hPa 0,0 l/m 0 min 0 min 0 W/m 16,7 km/h (3 Bft) 97,62 %
27.01.2017 23:26 1,5 C 1,7 C -1,1 C 73 % 0 lf 1017,7 hPa 0,0 l/m 0 min 0 min 0 W/m 12,6 km/h (3 Bft) 97,96 %
27.01.2017 23:28 1,4 C 1,7 C -1,1 C 73 % 0 lf 1017,7 hPa 0,0 l/m 0 min 0 min 0 W/m 14,6 km/h (3 Bft) 98,00 %
27.01.2017 23:30 1,4 C 1,7 C -1,1 C 73 % 0 lf 1017,7 hPa 0,0 l/m 0 min 0 min 0 W/m 14,6 km/h (3 Bft) 95,65 %
27.01.2017 23:32 1,4 C 1,7 C -1,1 C 73 % 0 lf 1017,6 hPa 0,0 l/m 0 min 0 min 0 W/m 10,5 km/h (2 Bft) 100,00 %
27.01.2017 23:34 1,4 C 1,7 C -1,1 C 73 % 0 lf 1017,7 hPa 0,0 l/m 0 min 0 min 0 W/m 14,6 km/h (3 Bft) 96,00 %
27.01.2017 23:36 1,4 C 1,7 C -1,1 C 73 % 0 lf 1017,7 hPa 0,0 l/m 0 min 0 min 0 W/m 8,4 km/h (2 Bft) 100,00 %
27.01.2017 23:38 1,4 C 1,7 C -1,1 C 73 % 0 lf 1017,6 hPa 0,0 l/m 0 min 0 min 0 W/m 20,9 km/h (4 Bft) 97,87 %
27.01.2017 23:40 1,4 C 1,7 C -1,1 C 73 % 0 lf 1017,6 hPa 0,0 l/m 0 min 0 min 0 W/m 12,6 km/h (3 Bft) 97,56 %
27.01.2017 23:42 1,3 C 1,7 C -1,1 C 73 % 0 lf 1017,6 hPa 0,0 l/m 0 min 0 min 0 W/m 18,8 km/h (3 Bft) 98,00 %
27.01.2017 23:44 1,3 C 1,7 C -1,1 C 73 % 0 lf 1017,6 hPa 0,0 l/m 0 min 0 min 0 W/m 16,7 km/h (3 Bft) 100,00 %
27.01.2017 23:46 1,3 C 1,7 C -1,1 C 74 % 0 lf 1017,6 hPa 0,0 l/m 0 min 0 min 0 W/m 10,5 km/h (2 Bft) 97,87 %
27.01.2017 23:48 1,3 C 1,7 C -1,1 C 74 % 0 lf 1017,6 hPa 0,0 l/m 0 min 0 min 0 W/m 12,6 km/h (3 Bft) 100,00 %
27.01.2017 23:50 1,3 C 1,7 C -1,1 C 74 % 0 lf 1017,6 hPa 0,0 l/m 0 min 0 min 0 W/m 16,7 km/h (3 Bft) 100,00 %
27.01.2017 23:52 1,3 C 1,7 C -1,1 C 74 % 0 lf 1017,6 hPa 0,0 l/m 0 min 0 min 0 W/m 10,5 km/h (2 Bft) 97,96 %
27.01.2017 23:54 1,3 C 1,7 C -1,1 C 74 % 0 lf 1017,6 hPa 0,0 l/m 0 min 0 min 0 W/m 14,6 km/h (3 Bft) 100,00 %
27.01.2017 23:56 1,3 C 1,7 C -1,1 C 74 % 0 lf 1017,6 hPa 0,0 l/m 0 min 0 min 0 W/m 18,8 km/h (3 Bft) 97,62 %
27.01.2017 23:58 1,3 C 1,7 C -1,1 C 74 % 0 lf 1017,6 hPa 0,0 l/m 0 min 0 min 0 W/m 14,6 km/h (3 Bft) 100,00 %
_ Min-Zeit 03:02 00:12 02:20 14:48 00:00 08:12 - - - - 01:08 07:34
Minimum _ -1,9 C -1,7 C -4,4 C 67 % 0 lf 1016,6 hPa - - - - 8,4 km/h (2 Bft) 85,11 %
_ Max-Zeit 14:36 14:28 13:56 00:00 00:00 00:02 00:00 08:40 00:00 12:06 07:54 01:40
Maximum _ 4,8 C 7,8 C 3,9 C 81 % 0 lf 1019,3 hPa 0,0 l/m 2 min 0 min 330 W/m 43,9 km/h
S-SO (6 Bft)
100,00 %
Durchschnitt _ 0,9 C 1,6 C -0,9 C 75 % 0 lf 1017,4 hPa #0,0 l/m #5:14 h #0 min. 129 W/m 22,0 km/h (4 Bft) 95,75 %
© 2017 W. Hausmann